[[{"header":{"parameterUnit":"m.s-1","parameterCategory":1,"la1":30.6,"la2":29.2853,"lo1":-89.7004,"lo2":-87.6739,"dy":0.0162,"dx":0.0183,"nx":112,"ny":82,"refTime":"2023-03-13T12:00:00:Z","depth":0,"parameterNumber":2,"parameterNumberName":"U-component_of_WINDS"},"data":[0.0,0.0,0.0,0.0,0.0,0.0,0.0,0.0,0.0,0.0,0.0,0.0,0.0,0.0,0.0,0.0,0.0,0.0,0.0,0.0,0.0,0.0,0.0,0.0,0.0,0.0,0.0,0.0,0.0,0.0,0.0,0.0,0.0,0.0,0.0,0.0,0.0,0.0,0.0,0.0,0.0,0.0,0.0,0.0,0.0,0.0,0.0,0.0,0.0,0.0,0.0,0.0,0.0,0.0,0.0,0.0,0.0,0.0,0.0,0.0,0.0,0.0,0.0,0.0,0.0,0.0,0.0,0.0,0.0,0.0,0.0,0.0,0.0,0.0,0.0,0.0,0.0,0.0,0.0,0.0,0.0,0.0,0.0,0.0,0.0,0.0,0.0,0.0,0.0,0.0,6.2358,6.6436,7.363,7.8515,7.9515,7.7707,7.3822,6.7513,0.0,0.0,0.0,0.0,0.0,0.0,0.0,0.0,0.0,0.0,0.0,0.0,0.0,0.0,0.0,0.0,0.0,0.0,0.0,0.0,0.0,0.0,0.0,0.0,0.0,0.0,0.0,0.0,0.0,0.0,0.0,0.0,0.0,0.0,0.0,0.0,0.0,0.0,0.0,0.0,0.0,0.0,0.0,0.0,0.0,0.0,0.0,0.0,0.0,0.0,0.0,0.0,0.0,0.0,0.0,0.0,0.0,0.0,0.0,0.0,0.0,0.0,0.0,0.0,0.0,0.0,0.0,0.0,0.0,0.0,0.0,0.0,0.0,0.0,0.0,0.0,0.0,0.0,0.0,0.0,0.0,0.0,0.0,0.0,0.0,0.0,0.0,0.0,0.0,0.0,0.0,0.0,0.0,0.0,0.0,0.0,0.0,0.0,0.0,0.0,0.0,0.0,0.0,0.0,6.3474,7.0514,7.4322,7.7015,7.8554,7.5168,7.1283,6.7359,0.0,0.0,0.0,0.0,0.0,0.0,0.0,0.0,0.0,0.0,0.0,0.0,0.0,0.0,0.0,0.0,0.0,0.0,0.0,0.0,0.0,0.0,0.0,0.0,0.0,0.0,0.0,0.0,0.0,0.0,0.0,0.0,0.0,0.0,0.0,0.0,0.0,0.0,0.0,0.0,0.0,0.0,0.0,0.0,0.0,0.0,0.0,0.0,0.0,0.0,0.0,0.0,0.0,0.0,0.0,0.0,0.0,0.0,0.0,0.0,0.0,0.0,0.0,0.0,0.0,0.0,0.0,0.0,0.0,0.0,0.0,0.0,0.0,0.0,0.0,0.0,0.0,0.0,0.0,0.0,0.0,0.0,0.0,0.0,0.0,0.0,0.0,0.0,0.0,0.0,0.0,0.0,0.0,0.0,0.0,0.0,0.0,0.0,0.0,0.0,0.0,0.0,0.0,6.1704,6.5782,7.1591,7.4899,7.7169,7.84,7.5476,7.1706,6.7359,6.5089,0.0,0.0,0.0,0.0,0.0,0.0,0.0,0.0,0.0,0.0,0.0,0.0,0.0,0.0,0.0,0.0,0.0,0.0,0.0,0.0,0.0,0.0,0.0,0.0,0.0,0.0,0.0,0.0,0.0,0.0,0.0,0.0,0.0,0.0,0.0,0.0,0.0,0.0,0.0,0.0,0.0,0.0,0.0,0.0,0.0,0.0,0.0,0.0,0.0,0.0,0.0,0.0,0.0,0.0,0.0,0.0,0.0,0.0,0.0,0.0,0.0,0.0,0.0,0.0,0.0,0.0,0.0,0.0,0.0,0.0,0.0,0.0,0.0,0.0,0.0,0.0,0.0,0.0,0.0,0.0,0.0,0.0,0.0,0.0,0.0,0.0,0.0,0.0,0.0,0.0,0.0,0.0,0.0,0.0,0.0,0.0,0.0,0.0,0.0,0.0,0.0,0.0,6.3782,6.7577,7.1849,7.4822,7.6938,7.7938,7.5322,7.1668,6.7167,6.4089,0.0,0.0,0.0,0.0,0.0,0.0,0.0,0.0,0.0,0.0,0.0,0.0,0.0,0.0,0.0,0.0,0.0,0.0,0.0,0.0,0.0,0.0,0.0,0.0,0.0,0.0,0.0,0.0,0.0,0.0,0.0,0.0,0.0,0.0,0.0,0.0,0.0,0.0,0.0,0.0,0.0,0.0,0.0,0.0,0.0,0.0,0.0,0.0,0.0,0.0,0.0,0.0,0.0,0.0,0.0,0.0,0.0,0.0,0.0,0.0,0.0,0.0,0.0,0.0,0.0,0.0,0.0,0.0,0.0,0.0,0.0,0.0,0.0,0.0,0.0,0.0,0.0,0.0,0.0,0.0,0.0,0.0,0.0,0.0,0.0,0.0,0.0,0.0,0.0,0.0,0.0,0.0,0.0,0.0,0.0,0.0,0.0,0.0,0.0,0.0,0.0,0.0,6.3883,6.7718,7.203,7.3542,7.4899,7.6621,7.2811,6.9167,6.6449,6.218,0.0,0.0,0.0,0.0,0.0,0.0,0.0,0.0,0.0,0.0,0.0,0.0,0.0,0.0,0.0,0.0,0.0,0.0,0.0,0.0,0.0,0.0,0.0,0.0,0.0,0.0,0.0,0.0,0.0,0.0,0.0,0.0,0.0,0.0,0.0,0.0,0.0,0.0,0.0,0.0,0.0,0.0,0.0,0.0,0.0,0.0,0.0,0.0,0.0,0.0,0.0,0.0,0.0,0.0,0.0,0.0,0.0,0.0,0.0,0.0,0.0,0.0,0.0,0.0,0.0,0.0,0.0,0.0,0.0,0.0,0.0,0.0,0.0,0.0,0.0,0.0,0.0,0.0,0.0,0.0,0.0,0.0,0.0,0.0,0.0,0.0,0.0,0.0,0.0,0.0,0.0,0.0,0.0,0.0,0.0,0.0,0.0,0.0,0.0,0.0,0.0,0.0,6.3267,6.7526,7.1299,7.3574,7.5314,7.6516,7.3607,7.0096,6.6434,0.0,0.0,0.0,0.0,0.0,0.0,0.0,0.0,0.0,0.0,0.0,0.0,0.0,0.0,0.0,0.0,0.0,0.0,0.0,0.0,0.0,0.0,0.0,0.0,0.0,0.0,0.0,0.0,0.0,0.0,0.0,0.0,0.0,0.0,0.0,0.0,0.0,0.0,0.0,0.0,0.0,0.0,0.0,0.0,0.0,0.0,0.0,0.0,0.0,0.0,0.0,0.0,0.0,0.0,0.0,0.0,0.0,0.0,0.0,0.0,0.0,0.0,0.0,0.0,0.0,0.0,0.0,0.0,0.0,0.0,0.0,0.0,0.0,0.0,0.0,0.0,0.0,0.0,0.0,0.0,0.0,0.0,0.0,0.0,0.0,0.0,0.0,0.0,0.0,0.0,0.0,0.0,0.0,0.0,0.0,0.0,0.0,0.0,0.0,0.0,0.0,0.0,5.8011,6.2945,6.7393,7.0551,7.3153,7.5133,7.6274,7.294,6.9513,6.6438,0.0,0.0,0.0,0.0,0.0,0.0,0.0,0.0,0.0,0.0,0.0,0.0,0.0,0.0,0.0,0.0,0.0,0.0,0.0,0.0,0.0,0.0,0.0,0.0,0.0,0.0,0.0,0.0,0.0,0.0,0.0,0.0,0.0,0.0,0.0,0.0,0.0,0.0,0.0,0.0,0.0,0.0,0.0,0.0,0.0,0.0,0.0,0.0,0.0,0.0,0.0,0.0,0.0,0.0,0.0,0.0,0.0,0.0,0.0,0.0,0.0,0.0,0.0,0.0,0.0,0.0,0.0,0.0,0.0,0.0,0.0,0.0,0.0,0.0,0.0,0.0,0.0,0.0,0.0,0.0,0.0,0.0,0.0,0.0,0.0,0.0,0.0,0.0,0.0,0.0,0.0,0.0,0.0,0.0,0.0,0.0,0.0,0.0,0.0,0.0,0.0,0.0,5.8088,6.3022,6.7381,6.9928,7.2071,7.4023,7.5742,7.0273,6.6625,0.0,0.0,0.0,0.0,0.0,0.0,0.0,0.0,0.0,0.0,0.0,0.0,0.0,0.0,0.0,0.0,0.0,0.0,0.0,0.0,0.0,0.0,0.0,0.0,0.0,0.0,0.0,0.0,0.0,0.0,0.0,0.0,0.0,0.0,0.0,0.0,0.0,0.0,0.0,0.0,0.0,0.0,0.0,0.0,0.0,0.0,0.0,0.0,0.0,0.0,0.0,0.0,0.0,0.0,0.0,0.0,0.0,0.0,0.0,0.0,0.0,0.0,0.0,0.0,0.0,0.0,0.0,0.0,0.0,0.0,0.0,0.0,0.0,0.0,0.0,0.0,0.0,0.0,0.0,0.0,0.0,0.0,0.0,0.0,0.0,0.0,0.0,0.0,0.0,0.0,0.0,0.0,0.0,0.0,0.0,0.0,0.0,0.0,0.0,0.0,0.0,0.0,0.0,5.8088,6.3022,6.7613,7.0784,7.2969,7.4687,7.5781,7.1992,6.8385,6.5728,0.0,0.0,0.0,0.0,0.0,0.0,0.0,0.0,0.0,0.0,0.0,0.0,0.0,0.0,0.0,0.0,0.0,0.0,0.0,0.0,0.0,0.0,0.0,0.0,0.0,0.0,0.0,0.0,0.0,0.0,0.0,0.0,0.0,0.0,0.0,0.0,0.0,0.0,0.0,0.0,0.0,0.0,0.0,0.0,0.0,0.0,0.0,0.0,0.0,0.0,0.0,0.0,0.0,0.0,0.0,0.0,0.0,0.0,0.0,0.0,0.0,0.0,0.0,0.0,0.0,0.0,0.0,0.0,0.0,0.0,0.0,0.0,0.0,0.0,0.0,0.0,0.0,0.0,0.0,0.0,0.0,0.0,0.0,0.0,0.0,0.0,0.0,0.0,0.0,0.0,0.0,0.0,0.0,0.0,0.0,0.0,0.0,0.0,0.0,0.0,0.0,0.0,5.8088,6.3022,6.7574,7.0667,7.2851,7.4414,7.5312,7.2226,6.8658,6.4919,0.0,0.0,0.0,0.0,0.0,0.0,0.0,0.0,0.0,0.0,0.0,0.0,0.0,0.0,0.0,0.0,0.0,0.0,0.0,0.0,0.0,0.0,0.0,0.0,0.0,0.0,0.0,0.0,0.0,0.0,0.0,0.0,0.0,0.0,0.0,0.0,0.0,0.0,0.0,0.0,0.0,0.0,0.0,0.0,0.0,0.0,0.0,0.0,0.0,0.0,0.0,0.0,0.0,0.0,0.0,0.0,0.0,0.0,0.0,0.0,0.0,0.0,0.0,0.0,0.0,0.0,0.0,0.0,0.0,0.0,0.0,0.0,0.0,0.0,0.0,0.0,0.0,0.0,0.0,0.0,0.0,0.0,0.0,0.0,0.0,0.0,0.0,0.0,0.0,0.0,0.0,0.0,0.0,0.0,0.0,0.0,0.0,0.0,0.0,0.0,0.0,0.0,5.8319,6.3137,6.7437,7.0183,7.2221,7.375,7.4531,7.1523,6.8036,6.4294,0.0,0.0,0.0,0.0,0.0,0.0,0.0,0.0,0.0,0.0,0.0,0.0,0.0,0.0,0.0,0.0,0.0,0.0,0.0,0.0,0.0,0.0,0.0,0.0,0.0,0.0,0.0,0.0,0.0,0.0,0.0,0.0,0.0,0.0,0.0,0.0,0.0,0.0,0.0,0.0,0.0,0.0,0.0,0.0,0.0,0.0,0.0,0.0,0.0,0.0,0.0,0.0,0.0,0.0,0.0,0.0,0.0,0.0,0.0,0.0,6.125,6.1601,0.0,0.0,0.0,0.0,0.0,0.0,0.0,0.0,0.0,0.0,0.0,0.0,0.0,0.0,0.0,0.0,0.0,0.0,0.0,0.0,0.0,0.0,0.0,0.0,0.0,0.0,0.0,0.0,0.0,0.0,0.0,0.0,0.0,0.0,0.0,0.0,0.0,0.0,0.0,0.0,6.0102,6.3954,6.7957,7.2059,7.3592,7.4414,7.457,7.2031,6.8905,6.5307,6.1305,0.0,0.0,0.0,0.0,0.0,0.0,0.0,0.0,0.0,0.0,0.0,0.0,0.0,0.0,0.0,0.0,0.0,0.0,0.0,0.0,0.0,0.0,0.0,0.0,0.0,0.0,0.0,0.0,0.0,0.0,0.0,0.0,0.0,0.0,0.0,0.0,0.0,0.0,0.0,0.0,0.0,0.0,0.0,0.0,0.0,0.0,0.0,0.0,0.0,0.0,0.0,0.0,0.0,0.0,0.0,0.0,0.0,0.0,0.0,6.2656,6.2109,0.0,0.0,0.0,0.0,0.0,0.0,0.0,0.0,0.0,0.0,0.0,0.0,0.0,0.0,0.0,0.0,0.0,0.0,0.0,0.0,0.0,0.0,0.0,0.0,0.0,0.0,0.0,0.0,0.0,0.0,0.0,0.0,0.0,0.0,0.0,0.0,0.0,0.0,0.0,0.0,6.0624,6.4561,6.8607,7.2674,7.4382,7.5234,7.5234,7.3203,7.0234,6.6289,6.3,0.0,0.0,0.0,0.0,0.0,0.0,0.0,0.0,0.0,0.0,0.0,0.0,0.0,0.0,0.0,0.0,0.0,0.0,0.0,0.0,0.0,0.0,0.0,0.0,0.0,0.0,0.0,0.0,0.0,0.0,0.0,0.0,0.0,0.0,0.0,0.0,0.0,0.0,0.0,0.0,0.0,0.0,0.0,0.0,0.0,0.0,0.0,0.0,0.0,0.0,0.0,0.0,0.0,6.5781,6.664,6.7344,6.7344,6.7422,6.7422,6.5273,6.3594,6.2422,6.3164,0.0,0.0,0.0,0.0,0.0,0.0,0.0,0.0,0.0,0.0,0.0,0.0,0.0,0.0,0.0,0.0,0.0,0.0,0.0,0.0,0.0,0.0,5.8896,5.9588,5.9204,5.8088,5.5665,0.0,0.0,0.0,0.0,0.0,0.0,0.0,0.0,0.0,0.0,0.0,6.1087,6.5192,6.9166,7.2966,7.4866,7.5898,7.5898,7.4453,7.1758,6.7656,6.534,6.2298,0.0,0.0,0.0,0.0,0.0,0.0,0.0,0.0,0.0,0.0,0.0,0.0,0.0,0.0,0.0,0.0,0.0,0.0,0.0,0.0,0.0,0.0,0.0,0.0,0.0,0.0,0.0,0.0,0.0,0.0,0.0,0.0,6.1157,6.1118,0.0,0.0,0.0,0.0,0.0,0.0,0.0,0.0,0.0,0.0,0.0,0.0,0.0,6.2574,6.4114,6.5311,6.6368,6.7226,6.8437,6.9062,6.914,6.9101,6.9492,7.0195,6.9844,0.0,6.5078,6.5195,0.0,0.0,0.0,0.0,0.0,0.0,0.0,0.0,0.0,0.0,0.0,0.0,0.0,0.0,0.0,0.0,0.0,0.0,0.0,0.0,0.0,0.0,6.0512,6.0589,6.055,5.9973,5.8204,5.7396,5.6665,5.5588,5.4472,5.3587,0.0,0.0,0.0,0.0,0.0,0.0,6.2959,6.5981,6.9412,7.3915,7.5309,7.5898,7.5898,7.5,7.3203,7.0351,6.6892,6.4016,6.1951,5.8534,0.0,0.0,0.0,0.0,0.0,0.0,0.0,0.0,0.0,0.0,0.0,0.0,0.0,0.0,0.0,0.0,0.0,0.0,0.0,0.0,0.0,0.0,0.0,0.0,0.0,0.0,0.0,0.0,0.0,6.0249,6.1393,6.0818,6.0906,6.0269,0.0,0.0,0.0,0.0,0.0,0.0,0.0,0.0,0.0,6.4363,6.5211,6.6227,6.7435,6.9162,7.0409,7.1278,7.2514,7.3086,7.3086,7.3086,7.3242,7.3633,7.3633,7.25,7.0469,6.8047,6.6015,6.4297,0.0,0.0,0.0,0.0,6.1562,6.1914,6.2422,6.2851,6.3086,6.2578,0.0,0.0,0.0,0.0,0.0,0.0,0.0,6.1378,6.0517,6.1373,6.2589,6.3113,6.2781,6.232,6.2166,6.0973,5.9265,5.6896,5.628,5.5818,5.478,5.3972,0.0,0.0,0.0,5.9425,6.4144,6.729,7.0512,7.4217,7.582,7.664,7.664,7.582,7.4414,7.2305,6.9506,6.6794,6.4099,6.132,5.8934,0.0,0.0,0.0,0.0,0.0,0.0,0.0,0.0,0.0,0.0,0.0,0.0,0.0,0.0,0.0,0.0,0.0,0.0,0.0,0.0,0.0,0.0,0.0,0.0,0.0,0.0,0.0,0.0,6.1523,6.2613,6.1236,6.2623,6.2418,0.0,0.0,0.0,0.0,0.0,0.0,6.3984,6.4301,6.5408,6.7589,6.8781,6.9899,7.1043,7.3098,7.4446,7.5089,7.6287,7.6875,7.6875,7.6875,7.6875,7.6875,7.6875,7.625,7.4961,7.0859,6.8164,6.6367,6.4414,6.3672,6.3633,6.3398,6.3476,6.375,6.4414,6.4648,6.457,6.414,6.2656,6.0898,6.0078,0.0,0.0,0.0,0.0,6.3269,6.2391,6.3458,6.4981,6.5599,6.5346,6.5032,6.5345,6.4347,6.2313,5.8787,5.8303,5.8033,5.6648,5.5801,0.0,5.6806,5.8171,6.0702,6.5153,6.837,7.1384,7.4296,7.6172,7.7187,7.7187,7.6601,7.5586,7.4062,7.2002,6.9433,6.623,6.3935,6.1243,5.8011,0.0,0.0,0.0,0.0,0.0,0.0,0.0,0.0,0.0,0.0,0.0,0.0,0.0,0.0,0.0,0.0,0.0,0.0,0.0,0.0,0.0,0.0,0.0,0.0,0.0,0.0,0.0,0.0,0.0,6.4211,6.7331,0.0,0.0,0.0,0.0,6.3827,6.4481,6.5884,6.8244,6.7448,6.8444,7.1785,7.1964,7.2866,7.4725,7.6657,7.7753,7.8012,7.9002,7.9492,7.9492,7.9492,7.9492,7.9492,7.9492,7.8594,7.6797,7.3242,7.0781,6.8945,6.6445,6.5469,6.5351,6.4531,6.4765,6.5469,6.5508,6.5547,6.5664,6.6445,6.4961,6.2695,6.1836,6.1562,0.0,0.0,6.332,6.5078,6.4217,6.5744,6.7528,6.7541,6.8125,6.8233,6.6661,6.6264,6.5173,6.1764,5.9887,5.8753,5.844,0.0,5.8,5.9386,6.047,6.2485,6.6162,6.8895,7.1523,7.4297,7.6172,7.7187,7.7187,7.7148,7.6758,7.582,7.3835,7.1508,6.8912,6.6013,6.3243,6.0666,5.8165,0.0,0.0,0.0,0.0,0.0,0.0,0.0,0.0,0.0,0.0,0.0,0.0,0.0,0.0,0.0,0.0,0.0,0.0,0.0,0.0,0.0,0.0,0.0,0.0,0.0,0.0,0.0,0.0,6.8205,7.0786,0.0,6.7113,6.7564,6.8117,6.8086,6.9444,7.1053,7.2916,7.3005,7.385,7.563,7.6592,7.7476,7.8284,7.9632,8.0466,8.0661,8.1159,8.1094,8.0547,8.0547,8.0547,8.0508,7.9922,7.9375,7.8633,7.6289,7.3672,7.0898,6.8906,6.7773,6.7226,6.6914,6.6992,6.7344,6.7851,6.8047,6.7812,6.6484,6.5039,6.3555,6.2148,6.2109,6.2656,6.3203,6.4805,6.6406,6.668,6.7767,6.88,6.8796,6.8952,6.896,6.8497,6.8297,6.7561,6.5342,6.2486,6.0414,6.0336,5.9669,5.9579,6.0723,6.2525,6.4688,6.7313,7.0304,7.2795,7.4412,7.6172,7.7187,7.7187,7.7187,7.6601,7.5156,7.4243,7.2312,6.9066,6.6744,6.4051,6.0858,5.8858,5.6742,0.0,0.0,0.0,0.0,0.0,0.0,0.0,0.0,0.0,0.0,0.0,0.0,0.0,0.0,0.0,0.0,0.0,0.0,0.0,0.0,0.0,0.0,0.0,0.0,0.0,6.7578,7.0419,7.0748,7.3581,7.4128,7.0555,7.1591,7.2516,7.2617,7.3984,7.5501,7.7098,7.7253,7.7775,7.8844,7.9554,8.0138,8.0631,8.1343,8.1836,8.2109,8.2226,8.1992,8.1445,8.1445,8.1445,8.1406,8.082,8.0234,7.9609,7.8515,7.6172,7.3125,7.1133,7.0,6.9453,6.914,6.9023,6.9101,6.9648,6.9844,6.9453,6.7226,6.5898,6.4961,6.3789,6.3867,6.4492,6.5351,6.6836,6.8242,6.8515,6.9453,7.0273,7.0273,7.0195,7.026,7.0679,7.023,6.9391,6.8398,6.5488,6.2984,6.236,6.1795,6.184,6.3047,6.4623,6.6634,6.9179,7.1653,7.3652,7.4881,7.6328,7.7187,7.7187,7.6914,7.6289,7.5117,7.3702,7.1711,6.903,6.6776,6.4205,6.1281,5.9011,5.6626,5.4049,0.0,0.0,0.0,0.0,0.0,0.0,0.0,0.0,0.0,0.0,0.0,0.0,0.0,0.0,0.0,0.0,0.0,0.0,0.0,0.0,0.0,0.0,0.0,6.5781,6.9844,7.2572,7.1852,7.5826,7.7121,7.3403,7.5285,7.6924,7.7302,7.7969,7.9062,8.0703,7.9844,8.0007,8.1445,8.0592,8.0669,8.1739,8.1733,8.1914,8.2304,8.2304,8.2304,8.2304,8.2304,8.2304,8.2304,8.2304,8.1328,7.9726,7.9726,7.8242,7.5703,7.3125,7.2109,7.1953,7.1094,7.0781,7.0781,7.0742,7.0742,7.0508,6.8828,6.7695,6.6992,6.6992,6.6992,6.7187,6.8086,6.9492,7.0547,6.9765,7.082,7.207,7.207,7.207,7.2305,7.3164,7.1978,7.0758,7.0767,6.8711,6.6406,6.4531,6.4336,6.4916,6.6417,6.6849,0.0,7.1562,7.2773,7.4023,7.5742,7.6719,7.7226,7.7226,7.6445,7.5898,7.582,7.2299,6.985,6.8993,6.6147,6.3782,6.205,5.8742,5.5818,5.3318,0.0,0.0,0.0,0.0,0.0,0.0,0.0,0.0,0.0,0.0,0.0,0.0,0.0,0.0,0.0,0.0,0.0,0.0,0.0,0.0,0.0,6.664,6.9531,7.0156,7.3437,7.6365,7.7988,7.9754,8.0238,7.8681,7.9742,8.0353,7.9961,8.1289,8.2304,8.2773,8.2383,8.2646,8.3701,8.2127,8.1778,8.2848,8.224,8.2031,8.2304,8.2304,8.2304,8.2304,8.2304,8.2304,8.2304,8.2304,8.1679,8.0586,7.9961,7.8945,7.7578,7.5586,7.4062,7.289,7.2656,7.2578,7.25,7.1875,7.207,7.2305,7.0586,6.9844,6.9531,6.8945,6.8789,6.9101,7.0547,7.1289,7.1875,7.289,7.3515,7.3906,7.3906,7.3906,7.3945,7.418,7.3381,7.2417,7.1756,7.0586,6.9101,6.7383,6.7109,6.7261,6.7682,6.8857,7.0234,7.1797,7.332,7.4922,7.664,7.7617,7.8125,7.8125,7.7344,7.6015,7.414,7.1862,6.9804,6.8119,6.5473,6.2829,6.0242,5.8704,5.728,0.0,0.0,0.0,0.0,0.0,0.0,0.0,0.0,0.0,0.0,0.0,0.0,0.0,0.0,0.0,0.0,0.0,0.0,0.0,0.0,0.0,0.0,7.0625,7.3984,7.5547,7.7344,7.9309,8.1515,8.2396,8.2668,8.2357,8.2787,8.2969,8.2656,8.3906,8.4687,8.4687,8.457,8.4726,8.5117,8.3337,8.2668,8.329,8.2456,8.2109,8.2304,8.2304,8.2304,8.2304,8.2304,8.2304,8.2304,8.2304,8.1797,8.0976,8.0469,7.957,7.832,0.0,0.0,0.0,0.0,7.3828,7.3789,7.3242,7.3437,7.3633,7.2226,7.1797,7.1719,7.1211,7.1094,7.1367,7.2695,7.3086,7.332,7.4336,7.4609,7.4687,7.5078,7.4883,7.4805,7.5547,7.4726,7.3672,7.3203,7.2695,0.0,7.0586,6.9453,6.8867,6.9219,7.039,7.168,7.293,7.4609,7.6211,7.7617,7.8515,7.8984,7.8984,7.789,0.0,0.0,0.0,6.8682,6.5548,6.3584,0.0,0.0,0.0,5.8396,5.755,5.6588,0.0,0.0,5.3203,5.2664,0.0,0.0,0.0,0.0,0.0,0.0,0.0,0.0,0.0,0.0,0.0,0.0,0.0,0.0,0.0,0.0,7.4805,7.8515,8.1094,8.1445,8.1953,8.332,8.4023,8.4453,8.4609,8.4726,8.4844,8.5039,8.5937,8.6484,8.6484,8.6484,0.0,0.0,0.0,8.3594,8.3476,8.2617,8.2226,8.2304,8.2304,8.2304,8.2304,8.2304,8.2304,8.2304,8.2304,8.1875,8.1133,8.1054,8.0,7.832,7.6562,7.5898,7.5781,7.4922,7.4648,7.4726,7.4648,0.0,0.0,7.3711,7.3437,7.3437,7.3437,7.3437,7.3633,7.4492,7.4765,7.4765,7.4883,7.4883,7.5117,7.5976,7.5547,7.5351,7.6992,7.5976,7.4765,7.4765,7.4687,7.4336,7.3594,7.1562,7.0312,7.1015,7.1797,7.293,7.4687,7.625,7.7617,7.8672,7.9414,0.0,7.9844,7.8398,7.7031,7.5976,7.1774,6.733,6.2829,6.182,6.0896,5.9858,5.9704,5.9242,5.8434,5.8357,5.7896,5.7088,5.4818,5.4087,0.0,0.0,0.0,0.0,0.0,0.0,0.0,0.0,0.0,0.0,0.0,0.0,0.0,0.0,0.0,7.3359,7.7461,8.1172,8.3789,8.5312,8.5781,8.4726,8.4726,8.4804,8.4844,8.5469,8.5898,8.5937,8.7344,8.8203,8.8203,8.8203,8.8203,8.8164,8.6523,8.5312,8.4609,8.3711,8.2969,8.2304,8.2304,0.0,8.2304,8.2304,8.2304,8.2304,8.2304,8.2187,8.1992,8.1289,8.0,7.832,7.6562,7.5898,7.5781,7.4922,7.5039,7.5547,7.4844,7.5078,7.5508,7.4648,7.4336,7.4336,7.4336,7.4336,0.0,7.539,7.5664,7.582,7.6523,7.6719,7.6914,7.7773,7.7344,7.6992,7.8008,7.6875,7.5664,7.5664,7.5078,7.4531,7.4375,7.3945,7.3672,7.3828,7.3984,7.4726,7.6484,7.6992,7.8047,8.0273,8.0664,8.0742,8.0742,7.9805,7.8281,7.6055,7.2341,6.86,6.4949,6.4971,6.4037,6.182,6.0973,6.0127,5.9281,5.8627,5.8204,5.805,5.755,5.6665,0.0,0.0,0.0,0.0,0.0,0.0,0.0,0.0,0.0,0.0,0.0,6.5625,6.7773,0.0,7.4297,7.7305,8.0703,8.3711,8.5898,8.7304,8.7773,8.6914,8.7187,8.7461,8.7461,8.7851,8.8086,8.8086,8.9687,9.0469,9.0039,9.039,9.0469,9.0,8.7969,8.6445,8.5547,8.4258,8.3164,8.2304,8.2304,8.2304,8.2304,8.2304,8.2304,8.2304,8.2304,8.2304,8.2226,8.1367,8.0508,7.9609,7.832,7.7578,7.7187,7.7148,7.7422,7.7734,7.7305,7.7187,7.707,7.6172,7.5898,7.582,7.539,7.5547,7.5976,7.6445,7.6562,7.6758,7.7617,7.7539,7.7422,7.8281,7.7812,7.7305,7.7773,7.7187,7.6406,7.5976,7.5898,7.5742,7.5312,7.5625,7.5625,7.4726,7.5351,7.6211,7.7109,7.832,7.9609,8.0859,8.1406,8.164,8.164,8.0469,7.8594,7.6055,7.289,6.998,6.742,6.6123,6.4921,6.3652,6.2589,6.1627,6.0781,6.0396,5.9973,5.955,5.955,5.8627,0.0,0.0,0.0,0.0,0.0,0.0,0.0,6.3672,6.418,6.6797,6.8047,6.9531,7.2461,7.5156,7.7851,8.0781,8.3594,8.5937,8.75,8.8711,8.9453,8.9453,8.9765,9.0,9.0,9.0156,9.0234,9.0234,9.1875,9.2539,9.1836,9.2617,9.2695,9.1836,8.9648,8.789,8.6719,8.4961,8.3594,8.2539,8.2383,8.2304,8.2304,8.2304,8.2304,8.2304,8.2304,8.2304,8.2265,8.1523,8.1133,8.0937,8.039,7.9726,7.9023,7.9531,7.9687,7.9687,7.9687,7.9297,7.8633,7.789,7.7695,7.7539,7.668,7.6914,7.7461,7.7461,7.7461,7.7617,7.832,7.7969,7.7617,7.832,7.7969,7.7461,7.7461,7.7461,7.7187,7.6328,7.6719,7.6992,7.6289,7.6719,7.6719,7.5312,7.6445,7.75,7.7656,7.9648,8.1054,8.1211,8.1875,8.2304,8.2304,8.0859,7.8945,7.6562,7.418,7.1914,6.9844,6.7508,6.6001,6.5447,6.4397,6.3358,6.232,6.2166,6.1627,6.0781,6.0781,6.0089,6.125,6.0469,6.1367,6.418,6.4453,6.539,0.0,7.0781,7.043,7.3047,7.4297,7.5234,7.6406,7.8711,8.082,8.1953,8.5,8.7539,8.8437,9.0625,9.2148,9.2148,9.0898,9.0,9.0,9.0703,9.1133,9.1133,9.2773,9.3711,9.3594,9.4453,9.4492,9.3633,9.2578,9.0859,8.8437,8.6758,8.5078,8.3437,8.2656,8.2304,8.2304,8.2304,8.2304,8.2304,8.2304,8.2304,8.2304,8.2187,8.1719,8.1054,8.1758,8.1484,8.0625,7.9961,7.9687,7.9687,7.9687,7.9648,7.9531,7.9453,7.9414,7.9258,7.8476,7.8281,7.8359,7.8359,7.8359,7.8398,7.8476,7.8437,7.8398,7.8476,7.8437,7.8359,7.8359,7.8359,7.8086,7.7226,7.7148,7.7187,7.707,7.7148,7.7148,7.6953,7.7734,7.8594,7.9336,8.0351,8.1289,8.207,8.2226,8.2304,8.2304,8.1406,8.0117,7.832,7.7187,7.5117,7.1836,7.1248,6.9869,6.7435,6.6346,6.4936,6.3166,6.2435,6.1627,6.0781,6.0781,6.0704,6.4844,6.4531,6.5273,6.6758,6.8359,7.0312,7.3359,7.3476,7.3711,7.6328,7.7539,7.8515,7.9922,8.1445,8.3125,8.5039,8.6953,8.8867,9.0703,9.2344,9.3359,9.3359,9.2695,9.2265,9.2265,9.3047,9.3554,9.3554,9.4726,9.5195,9.4687,9.5469,9.5312,9.3945,9.3047,9.1328,8.8711,8.7539,8.582,8.3594,8.3242,8.3047,8.3047,8.2539,8.2304,8.2304,8.2304,8.2304,8.2304,8.2304,8.2109,8.1797,8.2148,8.207,8.1719,8.1367,8.1211,8.1211,8.1211,8.0898,8.0469,8.0469,8.0117,7.9531,7.875,7.8828,7.9101,7.8633,7.8828,7.9336,7.9805,7.957,7.9336,7.9844,7.957,7.9062,7.8594,7.8515,7.8242,7.7383,7.7187,7.7344,7.7851,7.7969,7.8125,7.8594,7.8984,7.9492,8.0351,8.1211,8.1914,8.2265,8.2304,8.2304,8.2304,8.1953,8.125,8.0039,7.8711,7.6836,7.4375,7.2695,7.1038,6.9362,6.7676,6.623,6.4936,6.3628,6.2512,6.1666,6.1127,6.0896,6.6758,6.7344,6.8437,6.9375,7.1992,7.4648,7.5742,7.6172,7.6953,7.9101,8.0,8.0898,8.2383,8.3554,8.5039,8.7148,8.8789,9.0429,9.2344,9.3554,9.4062,9.3594,9.375,9.3906,9.3906,9.4453,9.4922,9.5195,9.6015,9.6211,9.5586,9.6172,9.5937,9.4648,9.3554,9.1836,8.9453,8.8359,8.664,8.4297,8.4062,8.3945,8.3945,8.3047,8.2539,8.2304,8.2304,8.2304,8.2304,8.2304,8.2304,8.2304,8.2304,8.2304,8.2304,8.2304,8.2304,8.2304,8.2304,8.1875,8.1367,8.1367,8.0937,8.0273,7.9453,7.9609,7.9922,7.9336,7.9609,8.0195,8.0859,8.0547,8.0156,8.0547,8.0156,7.9531,7.8945,7.8672,7.832,7.7695,7.7344,7.7461,7.8359,7.8515,7.8867,7.9883,8.0078,8.0273,8.0937,8.1758,8.2304,8.2304,8.2304,8.2304,8.2304,8.2304,8.1914,8.1054,7.9648,7.7969,7.5976,7.375,7.1914,7.0547,6.8799,6.7346,6.6167,6.4743,6.3546,6.2681,6.179,6.1379,6.5195,6.6875,6.8984,7.2305,7.5117,7.75,7.918,8.0195,8.1054,8.1992,8.2187,8.25,8.3398,8.4961,8.6406,8.7344,9.0312,9.25,9.2578,9.4062,9.4531,9.2851,9.3398,9.3906,9.3906,9.3906,9.4297,9.5156,9.6015,9.6484,9.6445,9.6484,9.6484,9.6406,9.4765,9.3008,9.125,8.9531,8.7812,8.6094,8.5273,8.4844,8.4844,8.3945,8.3086,8.2304,8.2304,8.2304,8.2304,8.2304,8.2304,8.2304,8.2304,8.2304,8.2304,8.2304,8.2304,8.2304,8.2304,8.2265,8.2265,8.2265,8.2226,8.207,8.1172,8.0937,8.0976,8.0937,8.0937,8.0976,8.0976,8.0976,8.0742,7.9922,7.9726,7.9687,7.9687,7.9062,7.8476,7.8476,7.7773,7.7461,7.8359,7.8515,7.9062,8.0703,8.0976,8.0976,8.1015,8.1758,8.2304,8.2304,8.2304,8.2304,8.2304,8.2304,8.1914,8.1054,8.0156,7.8515,7.6015,7.5,7.3242,7.0547,6.9609,6.8241,6.6384,6.5513,6.4616,6.3741,6.2726,6.2277,6.6992,6.9844,7.3125,7.6015,7.8242,8.0039,8.1172,8.164,8.1953,8.2226,8.1367,8.0859,8.1719,8.2344,8.3594,8.6211,8.9023,9.1679,9.3984,9.5312,9.5625,9.4453,9.457,9.4531,9.3945,9.4414,9.5351,9.6758,9.7148,9.7304,9.7304,9.7304,9.7031,9.6523,9.5351,9.3633,9.1328,9.0156,8.8437,8.6211,8.5898,8.5469,8.4883,8.4609,8.3984,8.3125,8.2539,8.2304,8.2304,8.2304,8.2304,8.2304,8.2304,8.2304,8.2304,8.2304,8.2304,8.2304,8.2304,8.2304,8.2304,8.2304,8.2304,8.2148,8.125,8.1406,8.1758,8.1172,8.1406,8.1875,8.1875,8.1875,8.1797,8.1484,8.1445,8.1289,8.0703,8.0351,8.0,7.9414,7.9062,7.914,8.0,8.0156,8.0547,8.1679,8.1875,8.1875,8.1875,8.2109,8.2304,8.2304,8.2304,8.2304,8.2304,8.2304,8.2187,8.1875,8.0508,7.9062,7.7695,7.5664,7.3906,7.2383,7.0273,6.8893,6.8249,6.6225,6.5072,6.4752,6.3896,6.3169,6.9844,7.2969,7.6133,7.875,8.0429,8.1601,8.2187,8.2304,8.2304,8.2304,8.0664,7.9531,8.039,8.0547,8.1367,8.3945,8.7031,9.0195,9.3359,9.4297,9.4765,9.5156,9.4648,9.4297,9.4375,9.4609,9.5312,9.6719,9.7344,9.7578,9.7304,9.7265,9.6875,9.6054,9.5195,9.3633,9.1328,9.0742,8.9336,8.7109,8.7109,8.6484,8.5351,8.5039,8.4414,8.3554,8.2695,8.2304,8.2304,8.2304,8.2304,8.2304,8.2304,8.2304,8.2304,8.2304,8.2304,8.2304,8.2304,8.2304,8.2304,8.2304,8.2304,8.2187,8.164,8.1875,8.2187,8.1601,8.1875,8.2304,8.2304,8.2304,8.2304,8.2304,8.207,8.1758,8.1523,8.0976,8.0469,8.0195,7.9922,7.9961,8.0859,8.125,8.164,8.2226,8.2304,8.2304,8.2304,8.2304,8.2304,8.2304,8.2304,8.2304,8.2304,8.2304,8.2304,8.2304,8.0664,7.9336,7.8515,7.5976,7.418,7.332,7.0664,6.9258,6.9258,6.6964,6.5863,6.584,6.496,6.4263,7.3398,7.6055,7.8008,8.0469,8.1719,8.2344,8.2304,8.2344,8.2344,8.2187,8.0156,7.8555,7.9258,7.9453,7.9844,8.0859,8.4687,8.8476,9.1133,9.1523,9.25,9.4961,9.3828,9.3437,9.5039,9.4492,9.4375,9.5156,9.6719,9.7304,9.6601,9.6562,9.6172,9.5273,9.4414,9.3125,9.1367,9.1289,9.039,8.8789,8.8711,8.7851,8.6289,8.539,8.4492,8.3633,8.2734,8.2344,8.2304,8.2304,8.2304,8.2304,8.2304,8.2304,8.2304,8.2304,8.2304,8.2304,8.2304,8.2304,8.2304,8.2304,8.2304,8.2304,8.2304,8.2304,8.2304,8.2304,8.2304,8.2304,8.2304,8.2304,8.2304,8.2304,8.1679,8.1289,8.2109,8.1015,8.0078,8.0898,8.039,8.0117,8.0937,8.1758,8.2304,8.2304,8.2304,8.2304,8.2304,8.2304,8.2304,8.2304,8.2304,8.2304,8.2304,8.2304,8.2304,8.2304,8.0703,7.9414,7.8594,7.6094,7.4297,7.3398,7.0781,6.9453,6.9414,6.7734,6.6914,6.6875,6.5937,6.5441,7.582,7.8242,8.0351,8.164,8.2617,8.3086,8.2461,8.2812,8.2734,8.0742,7.8359,7.6211,7.5117,7.5976,7.7773,8.0547,8.5156,8.9765,9.3672,9.4765,9.5429,9.6094,9.5781,9.5429,9.5234,9.5586,9.5664,9.5234,9.6211,9.6992,9.7383,9.7383,9.7031,9.6172,9.5312,9.4023,9.2304,9.0976,9.0117,8.9648,8.9023,8.8476,8.8008,8.6523,8.539,8.4531,8.3633,8.289,8.2304,8.2304,8.2304,8.2304,8.2304,8.2304,8.2304,8.2304,8.2304,8.2304,8.2304,8.2304,8.2304,8.2304,8.2304,8.2304,8.2304,8.2304,8.2304,8.2304,8.2304,8.2304,8.2304,8.2304,8.2304,8.2304,8.2148,8.2031,8.2265,8.1953,8.1719,8.1914,8.1797,8.1719,8.1914,8.2148,8.2304,8.2304,8.2304,8.2304,8.2304,8.2304,8.2304,8.2304,8.2304,8.2304,8.2304,8.2304,8.2304,8.2304,8.1289,8.0273,7.9414,7.7539,7.582,7.4297,7.1719,7.0078,6.9453,6.7734,6.6914,6.6875,6.664,6.6164,7.8281,8.0469,8.2265,8.2734,8.3515,8.3633,8.1601,8.1523,8.1054,7.8086,7.539,7.332,7.2344,7.3594,7.5508,7.7812,8.3164,8.8398,9.2344,9.3984,9.5351,9.6836,9.6719,9.6445,9.6328,9.6406,9.6445,9.6328,9.6758,9.707,9.7187,9.75,9.7148,9.5976,9.5469,9.4375,9.2617,9.164,9.0937,9.0547,8.9687,8.9062,8.8633,8.6953,8.5703,8.4844,8.3984,8.3125,8.2304,8.2304,8.2304,8.2304,8.2304,8.2304,8.2304,8.2304,8.2304,8.2304,8.2304,8.2304,8.2304,8.2304,8.2304,8.2304,8.2304,8.2304,8.2304,8.2304,8.2304,8.2304,8.2304,8.2304,8.2304,8.2304,8.2304,8.2304,8.2304,8.2304,8.2304,8.2304,8.2304,8.2304,8.2304,8.2304,8.2304,8.2304,8.2304,8.2304,8.2304,8.2304,8.2304,8.2304,8.2304,8.2304,8.2304,8.2304,8.2304,8.2304,8.1484,8.0625,7.9726,7.8086,7.6367,7.4648,7.2422,7.0859,7.0039,6.832,6.7461,6.7461,6.707,6.664,8.0664,8.2461,8.3633,8.375,8.4336,8.3984,8.0508,7.9687,7.8672,7.5,7.2344,7.0664,7.0547,7.1953,7.3633,7.5195,8.0781,8.625,9.0156,9.1992,9.414,9.7304,9.707,9.6914,9.7617,9.707,9.6953,9.7656,9.7695,9.7383,9.6719,9.7304,9.6914,9.5234,9.5078,9.4258,9.2617,9.2617,9.2226,9.1445,9.0586,8.9765,8.8984,8.7304,8.6054,8.5195,8.4219,8.3281,8.2461,8.2344,8.2304,8.2304,8.2304,8.2304,8.2304,8.2304,8.2304,8.2304,8.2304,8.2304,8.2304,8.2304,8.2304,8.2304,8.2304,8.2304,8.2304,8.2304,8.2304,8.2304,8.2304,8.2304,8.2304,8.2304,8.2304,8.2304,8.2304,8.2304,8.2304,8.2304,8.2304,8.2304,8.2304,8.2304,8.2304,8.2304,8.2304,8.2304,8.2304,8.2304,8.2304,8.2304,8.2304,8.2304,8.2304,8.2304,8.2304,8.2304,8.1601,8.0742,7.9726,7.8281,7.6601,7.4648,7.3008,7.168,7.0703,6.914,6.8359,6.8359,6.7461,6.707,8.2656,8.3359,8.3789,8.4492,8.4804,8.3984,8.0508,7.9687,7.832,7.3437,7.1523,7.0469,6.9765,7.1055,7.3906,7.9062,8.2695,8.7109,9.3398,9.457,9.5469,9.7461,9.7578,9.7539,9.7695,9.7578,9.7539,9.7695,9.7695,9.7656,9.75,9.7617,9.6914,9.5234,9.4492,9.3633,9.2617,9.2617,9.2539,9.2344,9.1484,9.1015,9.0781,8.9062,8.7812,8.6953,8.5351,8.4179,8.332,8.2617,8.2304,8.2304,8.2304,8.2304,8.2304,8.2304,8.2304,8.2304,8.2304,8.2304,8.2304,8.2304,8.2304,8.2304,8.2304,8.2304,8.2304,8.2304,8.2304,8.2304,8.2304,8.2304,8.2304,8.2304,8.2304,8.2304,8.2304,8.2304,8.2304,8.2304,8.2304,8.2304,8.2304,8.2304,8.2304,8.2304,8.2304,8.2304,8.2304,8.2304,8.2304,8.2304,8.2304,8.2304,8.2304,8.2304,8.2304,8.2304,8.2148,8.1367,7.9765,7.9414,7.7773,7.4648,7.3594,7.2305,7.0703,6.9726,6.9258,6.918,6.8359,6.7969,8.3359,8.4609,8.5625,8.5586,8.5937,8.4883,7.9609,7.8047,7.6133,7.0508,6.9023,6.8711,6.8789,7.0547,7.3242,7.7031,8.1367,8.6015,9.1094,9.3398,9.5312,9.7461,9.7695,9.7695,9.7695,9.7695,9.7695,9.7695,9.7695,9.7695,9.7695,9.6875,9.6015,9.5234,9.3906,9.3008,9.2617,9.2617,9.2617,9.2578,9.1719,9.1289,9.125,8.9492,8.8242,8.7383,8.5664,8.4414,8.3515,8.2656,8.2304,8.2304,8.2304,8.2304,8.2304,8.2304,8.2304,8.2304,8.2304,8.2304,8.2304,8.2304,8.2304,8.2304,8.2304,8.2304,8.2304,8.2304,8.2304,8.2304,8.2304,8.2304,8.2304,8.2304,8.2304,8.2304,8.2304,8.2304,8.2304,8.2304,8.2304,8.2304,8.2304,8.2304,8.2304,8.2304,8.2304,8.2461,8.2929,8.2969,8.2969,8.2969,8.2969,8.2969,8.2969,8.2969,8.2773,8.2344,8.2304,8.1719,8.0429,7.9922,7.8515,7.6015,7.5117,7.3789,7.2031,7.1211,7.0547,7.0039,6.8789,6.8203,8.3828,8.5664,8.7344,8.664,8.6836,8.5469,7.8711,7.6367,7.3945,6.8125,6.7031,6.7422,6.8281,7.0234,7.2461,7.4765,7.9297,8.3945,8.8125,9.1367,9.4375,9.7109,9.7617,9.7695,9.7695,9.7695,9.7695,9.7695,9.7695,9.7695,9.7695,9.6289,9.539,9.5195,9.3672,9.2773,9.2617,9.2617,9.2617,9.2578,9.1914,9.1562,9.1523,8.9961,8.8828,8.7929,8.6211,8.4844,8.3828,8.2929,8.2461,8.2304,8.2304,8.2304,8.2304,8.2304,8.2304,8.2304,8.2304,8.2304,8.2304,8.2304,8.2304,8.2304,8.2304,8.2304,8.2304,8.2304,8.2304,8.2304,8.2304,8.2304,8.2304,8.2304,8.2304,8.2304,8.2304,8.2304,8.2304,8.2304,8.2304,8.2304,8.2304,8.2304,8.2304,8.2304,8.2304,8.2617,8.3476,8.3594,8.3828,8.4375,8.4101,8.3867,8.3867,8.3711,8.332,8.2617,8.2383,8.1914,8.1054,8.0156,7.8906,7.7226,7.6328,7.5117,7.3594,7.2695,7.1914,7.1211,6.9336,6.8476,8.457,8.6094,8.7461,8.7383,8.6836,8.4726,7.8594,7.5898,7.3242,6.7969,6.7539,6.832,6.914,7.0117,7.2187,7.6289,7.8086,8.125,8.7773,9.0351,9.2812,9.6211,9.7265,9.7695,9.7695,9.7695,9.7695,9.7695,9.7695,9.7695,9.7695,9.6875,9.6015,9.5234,9.4297,9.3398,9.2617,9.2617,9.2617,9.2617,9.2539,9.2461,9.2461,9.1484,9.0586,8.9687,8.8008,8.6328,8.4726,8.3828,8.3008,8.2304,8.2304,8.2304,8.2304,8.2304,8.2304,8.2304,8.2304,8.2304,8.2304,8.2304,8.2304,8.2304,8.2304,8.2304,8.2304,8.2304,8.2304,8.2304,8.2304,8.2304,8.2304,8.2304,8.2304,8.2304,8.2304,8.2304,8.2304,8.2304,8.2304,8.2304,8.2304,8.2304,8.2304,8.2304,8.2304,8.2617,8.3476,8.3594,8.4492,8.6875,8.5742,8.4765,8.4765,8.4062,8.3554,8.3476,8.2734,8.1914,8.1054,8.0156,7.8906,7.7226,7.6328,7.543,7.4492,7.3594,7.3125,7.3008,7.0469,6.9336,8.5039,8.7304,8.8867,8.8359,8.6797,8.3984,7.8476,7.5039,7.1875,6.7734,6.7578,6.8437,6.9258,7.0117,7.1601,7.4414,7.6015,7.8594,8.3398,8.5586,8.8515,9.3554,9.4453,9.5429,9.75,9.7265,9.6992,9.6992,9.6992,9.6992,9.6992,9.6172,9.5312,9.4453,9.3554,9.2969,9.2617,9.2617,9.2617,9.2617,9.2617,9.2617,9.2578,9.1719,9.082,8.9922,8.8242,8.6797,8.5625,8.4726,8.3867,8.3125,8.3672,8.3203,8.2344,8.289,8.2734,8.2304,8.2304,8.2304,8.2304,8.2304,8.2304,8.2304,8.2304,8.2304,8.2304,8.2304,8.2304,8.2304,8.2304,8.2304,8.2304,8.2304,8.2304,8.2304,8.2304,8.2304,8.2304,8.2304,8.2304,8.2304,8.2304,8.2304,8.2304,8.2304,8.2734,8.3398,8.4258,8.4844,8.5937,8.8008,8.7187,8.6445,8.6445,8.5664,8.4726,8.3672,8.2773,8.2148,8.1797,8.0937,7.9922,7.8711,7.789,7.6523,7.4609,7.4258,7.3555,7.2461,7.0898,6.9922,8.4258,8.7109,8.9101,8.8515,8.6406,8.3281,7.8633,7.4687,7.1094,6.793,6.7969,6.875,6.9258,7.0312,7.1484,7.2656,7.4336,7.6719,8.0117,8.2344,8.5469,9.0508,9.1523,9.2969,9.5898,9.6367,9.6601,9.6836,9.6406,9.6133,9.6133,9.5273,9.4531,9.3906,9.2812,9.2344,9.2617,9.2344,9.2344,9.2617,9.2617,9.2617,9.2578,9.1719,9.082,8.9922,8.8476,8.7226,8.6133,8.5273,8.4531,8.3984,8.4101,8.3554,8.2773,8.3359,8.3047,8.2344,8.2617,8.2539,8.2304,8.2304,8.2304,8.2304,8.2304,8.2304,8.2304,8.2304,8.2304,8.2304,8.2304,8.2304,8.2304,8.2304,8.2304,8.2304,8.2304,8.2304,8.2304,8.2304,8.25,8.2617,8.2344,8.25,8.2617,8.2344,8.3047,8.3906,8.4804,8.5664,8.6953,8.8867,8.8594,8.8125,8.789,8.6836,8.5586,8.4062,8.2929,8.2304,8.2304,8.1445,8.0703,8.0117,7.9023,7.7578,7.5742,7.4961,7.3984,7.2734,7.1367,7.0273,8.1875,8.4883,8.7539,8.75,8.5547,8.2695,7.9258,7.5117,7.1289,6.8711,6.8867,6.9414,6.9258,7.0742,7.1914,7.1758,7.3359,7.582,7.9219,8.1953,8.457,8.7226,8.9023,9.0703,9.2461,9.5,9.6836,9.7617,9.6133,9.5195,9.5195,9.4375,9.3906,9.3906,9.2226,9.1719,9.2578,9.1758,9.1758,9.2617,9.2617,9.2617,9.2578,9.1719,9.082,8.9961,8.9062,8.7734,8.6133,8.5273,8.4883,8.4726,8.3008,8.2851,8.3594,8.3594,8.3047,8.2422,8.3281,8.3008,8.2304,8.2304,8.2304,8.2304,8.2304,8.2304,8.2304,8.2304,8.2304,8.2304,8.2304,8.2304,8.2304,8.2304,8.2304,8.2304,8.2304,8.2304,8.2304,8.2304,8.3008,8.332,8.2461,8.3008,8.3281,8.2422,8.3047,8.3906,8.4804,8.5664,8.7187,8.9726,8.9961,8.9609,8.875,8.7148,8.582,8.4922,8.3242,8.2304,8.2304,8.1445,8.1015,8.0976,7.9336,7.8476,7.8437,7.5859,7.4609,7.4492,7.1914,7.0273,7.9531,8.1758,8.3047,8.3047,8.1133,7.8633,7.6367,7.293,7.0,6.918,6.9297,6.9609,7.0039,7.1136,7.2312,7.3314,7.4609,7.6289,7.8555,8.1094,8.4101,8.7851,9.2422,9.5039,9.4414,9.5664,9.6094,9.5156,9.4609,9.4297,9.4297,9.3476,9.2734,9.2148,9.1601,9.1445,9.1719,9.0859,9.1133,9.2578,9.1992,9.2031,9.2578,9.2304,9.1406,8.9961,8.9726,8.8633,8.707,8.6797,8.6328,8.5781,8.5859,8.5273,8.4492,8.4492,8.3945,8.3242,8.3515,8.3047,8.2383,8.3008,8.2773,8.2304,8.2304,8.2304,8.2304,8.2304,8.2304,8.2304,8.2304,8.2304,8.2304,8.2304,8.2304,8.2304,8.2304,8.2304,8.2461,8.3086,8.3398,8.3711,8.4023,8.4297,8.4375,8.4101,8.4804,8.5469,8.5742,8.7031,8.8437,8.9844,9.0547,9.0547,8.9648,8.8554,8.7031,8.5039,8.3828,8.2929,8.2304,8.2031,8.1601,8.1015,7.9883,7.875,7.7617,7.6172,7.4883,7.3672,7.164,7.0547,7.664,7.8906,8.0195,8.0859,7.8828,7.6523,7.5742,7.2383,6.9453,6.9453,6.9414,6.9492,6.9844,7.0961,7.2109,7.2994,7.4297,7.582,7.7656,8.0664,8.4297,8.8672,9.2812,9.5,9.4297,9.5,9.5195,9.4453,9.3789,9.3554,9.3867,9.3086,9.2187,9.1328,9.0976,9.0976,9.1289,9.0429,9.0859,9.2578,9.2031,9.1914,9.2109,9.2109,9.1172,8.9492,8.9492,8.8554,0.0,8.664,8.6406,8.6172,8.6054,8.5781,8.539,8.539,8.4844,8.4101,8.4101,8.3515,8.2812,8.3047,8.2734,8.2304,8.2304,8.2304,8.2304,8.2304,8.2304,8.2304,8.2304,8.2304,8.2304,8.2304,8.2304,8.2304,8.2304,8.2578,8.2969,8.3476,8.414,8.4648,8.4844,8.5156,8.5273,8.4961,8.5625,8.6211,8.6211,8.7656,8.9023,8.9922,9.0781,9.1094,9.0547,8.9375,8.7734,8.5547,8.4258,8.3203,8.2344,8.2304,8.2031,8.1484,8.0625,7.9492,7.8125,7.664,7.5156,7.375,7.2344,7.168,0.0,7.6055,7.8398,7.9961,7.7969,7.582,7.664,7.3008,0.0,6.957,6.9375,6.9179,6.9097,7.0409,7.1468,7.1412,7.2923,7.4759,7.6712,8.0897,8.5351,8.9687,9.1054,9.1914,9.2617,9.3398,9.4219,9.5039,9.3554,9.2969,9.375,9.3047,9.2187,9.1328,9.0429,9.039,9.1289,9.0351,9.082,9.2617,9.2461,9.207,9.1406,9.125,9.0312,8.8789,8.8711,8.7773,8.6211,8.5429,8.5547,8.6054,8.4492,8.4804,8.6094,8.6094,8.5586,8.4883,8.4883,8.4336,8.3476,8.2578,8.2304,8.2304,8.2304,8.2304,8.2304,8.2304,8.2304,8.2304,8.2304,8.2304,8.2304,8.2304,8.2344,8.2383,8.2383,8.3086,8.3711,8.3789,8.5078,8.5976,8.5195,8.5742,8.6015,8.5195,8.5781,8.6328,8.6367,8.7773,8.914,9.0,9.0859,9.1406,9.1406,8.9804,8.8047,8.6328,8.4609,8.3281,8.2344,8.2304,8.2304,8.2304,8.1445,8.0547,7.9609,7.7187,7.5547,7.4687,7.3711,7.3281,6.9351,0.0,7.3633,7.4023,7.3515,7.2969,0.0,0.0,0.0,0.0,0.0,0.0,7.0678,7.1246,7.1878,7.2999,7.4186,7.5619,7.7418,8.3752,8.914,9.1679,9.3945,9.4765,9.3437,9.3672,9.3906,9.3906,9.3086,9.2695,9.289,9.2695,9.2148,9.1094,9.0234,9.0273,9.1289,8.9765,9.0234,9.2578,9.125,9.1211,9.2265,9.0898,9.0078,8.9648,8.8984,8.8125,8.7187,8.6953,8.6601,8.6211,8.6484,8.6015,8.5195,8.5195,8.5078,8.4883,8.4883,8.4336,8.3476,8.2578,8.2304,8.2304,8.2304,8.2304,8.2304,8.2304,8.2304,8.2304,8.2304,8.2304,8.2304,8.2304,8.2812,8.3281,8.3281,8.3984,8.4804,8.5469,8.5937,8.6367,8.6797,8.707,8.7109,8.6914,8.707,8.7422,8.8047,8.9023,9.0039,9.0898,9.1758,9.2304,9.2304,9.0703,8.8672,8.6367,8.5195,8.3906,8.2344,8.2304,8.2304,8.2304,8.1445,8.0273,7.8789,7.75,7.6445,7.5547,7.4023,7.3281,6.8793,7.0369,7.1875,7.1992,7.1992,7.1992,7.1992,7.0664,0.0,0.0,0.0,0.0,7.0165,7.1448,7.2552,7.2993,7.4819,7.7274,8.0299,8.5131,8.9532,9.2693,9.384,9.4295,9.41,9.3406,9.2963,9.2929,9.2617,9.2304,9.2031,9.1914,9.1406,9.0429,8.9837,9.0061,9.1133,8.9844,9.0117,9.1992,9.1054,9.0664,9.0781,9.0234,8.957,8.8867,8.875,8.8008,8.6914,8.6914,8.6406,8.5703,8.6562,8.6328,8.5547,8.5937,8.5859,8.5508,8.5508,8.4648,8.3476,8.2578,8.2304,8.2304,8.2304,8.2304,8.2304,8.2304,8.2304,8.2304,8.2304,8.2617,8.289,8.289,8.3554,8.4101,8.3672,8.4609,8.5508,8.5586,8.625,8.6953,8.7422,8.75,8.75,8.75,8.75,8.7773,8.8594,8.9453,9.0312,9.1211,9.207,9.2617,9.2617,9.1015,8.9258,8.7461,8.582,8.4297,8.2969,8.25,8.2304,8.2304,8.1445,8.0547,7.9648,7.8398,7.7539,7.7031,7.5312,7.4492,6.9552,7.1,7.2027,7.1992,7.1986,7.1936,7.1835,7.0662,6.9364,0.0,0.0,6.9178,6.9577,7.1737,7.338,7.3014,7.5754,7.9481,8.4111,8.6357,8.9023,9.3061,9.2795,9.2843,9.4348,9.2903,9.2003,9.2248,9.2221,9.1914,9.1406,9.1094,9.0621,9.0008,8.9382,8.9643,9.0862,9.0114,9.0195,9.1172,9.1015,9.0195,8.8867,8.9375,8.8906,8.7695,8.8281,8.7656,8.6211,8.6211,8.5625,8.4804,8.5664,8.5859,8.5742,8.6719,8.6562,8.5781,8.5781,8.4844,8.3476,8.2578,8.2304,8.2304,8.2265,8.2265,8.2265,8.2422,8.2461,8.25,8.25,8.3164,8.3789,8.3789,8.4453,8.4883,8.414,8.5273,8.6172,8.5429,8.6367,8.7304,8.7304,8.7304,8.7304,8.7304,8.7422,8.7851,8.8789,8.9531,9.039,9.1406,9.2148,9.2617,9.2617,9.1015,8.9687,8.8945,8.6367,8.4453,8.3437,8.2695,8.2304,8.2304,8.1562,8.1133,8.1015,7.957,7.875,7.8476,7.6836,7.6015,6.8912,7.1319,7.3378,7.2298,7.1872,0.0,7.1038,7.0492,6.9915,6.9181,6.9412,7.0401,7.2558,7.3236,7.4158,7.6194,7.8769,8.2336,8.7478,8.9778,9.1418,9.3021,9.3659,9.3797,9.3158,9.2361,9.2117,9.2643,9.2234,9.1914,9.1797,9.1094,9.0812,9.1202,8.9099,8.8727,9.0372,8.9926,9.0039,9.0703,8.9609,8.9258,8.9492,8.8398,8.8125,8.8476,8.7929,8.7109,8.6211,8.6211,8.5234,8.3906,8.4765,8.4219,8.3086,8.4726,8.4765,8.3984,8.3984,8.3828,8.3476,8.2578,8.2304,8.2265,8.2109,8.2031,8.2187,8.2929,8.3281,8.3398,8.3398,8.4062,8.4687,8.4687,8.5351,8.5976,8.582,8.6601,8.7265,8.7148,8.6719,8.6406,8.6406,8.6406,8.6406,8.6406,8.7031,8.8047,8.9609,8.9922,9.0625,9.2226,9.2539,9.2617,9.2617,9.1015,8.9922,8.9804,8.6719,8.4179,8.2578,8.2383,8.2304,8.2304,8.2187,8.1758,8.1015,8.0742,7.9883,7.8476,7.7461,7.6601,6.8039,6.9731,7.1466,7.2455,0.0,0.0,7.2344,7.2088,7.1775,7.008,7.0204,7.107,7.2678,7.4397,7.6855,8.0767,8.277,8.4809,8.7721,8.9636,9.1248,9.2751,9.3192,9.3582,9.4159,9.2977,9.2399,9.2746,9.1708,9.0869,9.0519,8.9585,8.8965,8.881,8.7979,8.7906,8.8709,8.8655,8.8896,8.9414,8.8338,8.7843,8.7773,8.6601,8.6289,8.664,8.625,8.5859,8.5508,8.5508,8.4765,8.3672,8.457,8.4101,8.3086,8.3906,8.4258,8.4179,8.3203,8.3203,8.3437,8.2461,8.2148,8.2109,8.1914,8.1836,8.202,8.2876,8.3263,8.3554,8.414,8.4961,8.5586,8.5586,8.6289,8.6758,8.6289,8.6875,8.7344,8.6875,8.6836,8.6914,8.6914,8.6914,8.6914,8.6914,8.7617,8.8594,8.9844,9.082,9.1719,9.25,9.3008,9.3125,9.2656,9.1015,8.9219,8.7344,8.5781,8.4101,8.2383,8.2304,8.2304,8.2304,8.2304,8.2109,8.1719,8.0742,7.9883,7.9101,7.7812,7.6992,6.7667,6.8839,7.0263,0.0,0.0,7.5079,7.387,0.0,0.0,0.0,7.186,7.2591,7.3389,7.624,7.9928,8.4445,8.6223,8.742,8.8723,9.0142,9.1639,9.3139,9.3174,9.3515,9.4629,9.3361,9.2476,9.2438,9.1056,8.9983,8.9444,8.8294,8.7445,8.705,8.7064,8.718,8.7396,8.7358,8.7589,8.8166,8.7196,8.6466,8.5937,8.5195,8.4844,8.4844,8.4883,8.4765,8.4609,8.4609,8.4062,8.3359,8.4023,8.4023,8.3594,8.3359,8.3828,8.4297,8.2773,8.2656,8.3008,8.2187,8.194,8.1883,8.1687,8.1639,8.1816,8.2663,8.3174,8.3699,8.4764,8.5703,8.6406,8.6406,8.6953,8.7304,8.664,8.7031,8.7304,8.664,8.6875,8.7187,8.7187,8.7187,8.7265,8.7461,8.8164,8.9101,9.0156,9.164,9.2617,9.2617,9.3398,9.3476,9.2383,9.0898,8.8711,8.5703,8.4922,8.3984,8.2656,8.2422,8.2304,8.2304,8.2304,8.2304,8.2304,8.0976,8.0195,7.9961,7.8672,7.7969,6.8527,7.0402,7.2181,7.1978,0.0,0.0,7.4719,7.3927,0.0,7.4379,0.0,7.5938,7.6784,7.9669,8.2824,8.5593,8.8055,9.0444,9.2903,9.4057,9.4672,9.4828,9.4826,9.4251,9.2832,9.2559,9.2168,9.1364,9.0444,8.9902,8.985,8.8315,8.7781,8.8507,8.7012,8.6594,8.7396,8.6594,8.6621,8.7434,8.6206,8.5504,8.5273,8.4804,8.4609,8.4648,8.4804,8.4453,8.3672,8.3672,8.3164,8.2383,8.2461,8.2929,8.3515,8.2695,8.2812,8.3281,8.2344,8.1953,8.1836,8.1758,8.1728,8.1658,8.1466,8.1415,8.1593,8.2471,8.3303,8.4108,8.52,8.625,8.7031,8.7031,8.7265,8.7461,8.7422,8.7461,8.7461,8.7422,8.6797,8.6289,8.6289,8.6289,8.6562,8.7383,8.8164,8.9297,9.0976,9.2031,9.2617,9.2617,9.3398,9.3203,9.1523,9.0547,8.9219,8.7422,8.5039,8.3633,8.3515,8.2734,8.2304,8.2304,8.2304,8.2304,8.2304,8.2187,8.1719,8.0898,8.0781,8.0273,6.7039,6.8935,7.0976,7.1472,0.0,0.0,0.0,0.0,7.5733,7.6331,7.663,7.7246,7.8592,8.1631,8.4555,8.6594,8.9056,9.1248,9.2749,9.3672,9.421,9.4176,9.4174,9.3943,9.333,9.2787,9.2168,9.1287,9.0367,8.9479,8.8392,8.7743,8.7319,8.7089,8.644,8.6247,8.6594,8.6247,8.6286,8.6588,8.5163,8.4533,8.4534,8.3349,8.2857,8.3008,8.3047,8.2969,8.2773,8.2773,8.2617,8.2304,8.2304,8.2422,8.2578,8.2226,8.2187,8.2261,8.1944,8.1738,8.166,8.1543,8.1528,8.1477,8.1246,8.1208,8.1477,8.2887,8.3471,8.398,8.5203,8.6203,8.6917,8.6901,8.6992,8.707,8.707,8.7148,8.7265,8.7265,8.7109,8.6992,8.6992,8.7422,8.7851,8.8203,8.9414,9.0742,9.1953,9.2851,9.3398,9.3398,9.3203,9.2617,9.1406,9.0508,8.9492,8.832,8.582,8.4179,8.3633,8.2773,8.2304,8.2304,8.2304,8.2304,8.2304,8.1758,8.1328,8.0976,8.0429,8.0,6.6167,6.7705,6.9552,0.0,0.0,0.0,0.0,7.598,7.704,7.8246,7.8054,7.8207,7.99,8.2324,8.4632,8.6324,8.921,9.1402,9.2018,9.3018,9.3633,9.333,9.352,9.3403,9.2561,9.2249,9.1595,9.0482,8.9598,8.8632,8.7478,8.7132,8.6709,8.6132,8.6094,8.6094,8.6094,8.6094,8.6094,8.6094,8.4527,8.3901,8.3957,8.2317,8.1678,8.1802,8.1865,8.2031,8.2226,8.2226,8.2226,8.2304,8.2226,8.2109,8.1991,8.1922,8.1792,8.161,8.162,8.1554,8.1477,8.1323,8.1285,8.1285,8.1131,8.1093,8.1362,8.281,8.3394,8.3856,8.4983,8.6017,8.6713,8.6714,8.6746,8.6785,8.6785,8.6902,8.7026,8.7107,8.7265,8.7461,8.7812,8.8359,8.8906,8.9453,9.0547,9.1719,9.2851,9.3789,9.4297,9.4297,9.3515,9.2656,9.1797,9.0898,9.0039,8.9179,8.6992,8.5195,8.4062,8.3164,8.2578,8.2304,8.2304,8.2304,8.2304,8.1719,8.1406,8.1406,8.0781,8.0508,6.6359,6.7128,6.8218,6.7587,0.0,0.0,7.4427,7.5003,7.6186,8.0285,7.9746,7.9054,8.0785,8.1785,8.2901,8.4632,8.844,9.1171,9.121,9.2633,9.3364,9.2559,9.3172,9.2672,9.0136,9.0636,9.0482,8.8833,8.7902,8.7401,8.7414,8.6599,8.6094,8.6094,8.6094,8.6094,8.6094,8.6094,8.6094,8.6055,8.4374,8.3599,8.3541,8.2086,8.14,8.1415,8.1607,8.1796,8.1992,8.1992,8.2109,8.2265,8.207,8.1992,8.1982,8.1755,8.1554,8.14,8.14,8.1246,8.1093,8.1093,8.1093,8.1093,8.1093,8.1093,8.1246,8.2086,8.2907,8.3797,8.4676,8.5709,8.6478,8.6478,8.6632,8.6819,8.6819,8.6819,8.6842,8.7045,8.7109,8.7422,8.8515,8.8711,8.9297,9.1015,9.1289,9.1953,9.3672,9.4648,9.5195,9.5195,9.4414,9.3554,9.2656,9.1797,9.0937,9.0078,8.8437,8.6719,8.4961,8.4062,8.3203,8.2304,8.2304,8.2304,8.2304,8.2304,8.2304,8.2304,8.2304,8.2304,6.6205,6.7128,6.8513,6.891,7.0909,7.3486,7.6024,7.6716,0.0,0.0,8.1516,8.1323,8.1862,8.3131,8.4286,8.4824,8.744,8.9633,9.021,9.0713,9.0944,9.0713,9.0406,8.987,8.914,8.9286,8.8974,8.7863,8.8089,8.7781,8.656,8.6247,8.6094,8.6094,8.5522,8.5522,8.6094,8.5522,8.5253,8.5253,8.3495,8.3022,8.3541,8.1932,8.1246,8.1393,8.1451,8.1613,8.1794,8.1786,8.1836,8.1875,8.1797,8.1694,8.1569,8.1504,8.1362,8.117,8.117,8.1131,8.1093,8.1093,8.1093,8.1093,8.1093,8.1093,8.14,8.2848,8.3401,8.3951,8.5368,8.5978,8.6209,8.6209,8.6247,8.6324,8.6324,8.644,8.6601,8.666,8.6774,8.6992,8.7304,8.8359,8.9297,8.9804,9.1445,9.3086,9.4375,9.4765,9.4765,9.4336,9.3515,9.289,9.2617,9.1797,9.0937,9.0078,8.8945,8.7304,8.5,8.4062,8.3203,8.2304,8.2304,8.2304,8.2304,8.2304,8.2304,8.2304,8.2304,8.2304,6.6936,6.7898,6.9206,7.0398,7.236,7.4745,7.763,7.86,7.9485,8.1439,8.1823,8.19,8.2247,8.3439,8.4516,8.4824,8.7017,8.8748,8.8902,8.9483,8.979,8.9444,8.8986,8.8563,8.8214,8.8205,8.7666,8.6478,8.6896,8.6709,8.5709,8.5291,8.5286,8.5588,8.4791,8.4637,8.5099,8.4637,8.4368,8.4362,8.2984,8.2593,8.3041,8.1739,8.117,8.1285,8.1362,8.1477,8.1608,8.1675,8.1714,8.1675,8.1597,8.1504,8.1362,8.1285,8.1208,8.1093,8.1093,8.1093,8.1093,8.1093,8.1093,8.1093,8.1093,8.1093,8.1362,8.2733,8.3324,8.3912,8.5253,8.5863,8.6094,8.6094,8.6094,8.6094,8.6094,8.6247,8.6363,8.6478,8.6854,8.7287,8.7715,8.8937,8.995,9.0287,9.2221,9.4052,9.5026,9.5235,9.5039,9.4336,9.3554,9.2969,9.2617,9.2109,9.1289,9.0078,8.9492,8.7929,8.5039,8.4414,8.3554,8.2304,8.2304,8.2304,8.2304,8.2304,8.2304,8.2304,8.2304,8.2304,6.8167,6.9052,7.0129,7.1975,7.3822,7.6015,7.9208,8.0516,8.1131,8.1208,8.1208,8.1477,8.2285,8.3131,8.3978,8.4747,8.694,8.8286,8.7517,8.8714,8.9406,8.8671,8.8521,8.8175,8.7358,8.7204,8.6517,8.5022,8.483,8.4791,8.4791,8.3951,8.3868,8.4728,8.3939,8.3528,8.3605,8.3528,8.3484,8.3464,8.2586,8.2201,8.2163,8.1439,8.1093,8.1093,8.1285,8.1362,8.1362,8.1554,8.1662,8.1662,8.1439,8.1362,8.1323,8.117,8.1093,8.1093,8.1093,8.1093,8.1093,8.1093,8.1093,8.1093,8.1093,8.1131,8.1362,8.2201,8.3054,8.3912,8.4791,8.5522,8.6094,8.6094,8.6094,8.6094,8.6094,8.6094,8.617,8.6401,8.7127,8.7974,8.8969,8.9927,9.089,9.1899,9.3405,9.4751,9.5595,9.5841,9.5617,9.4765,9.414,9.3476,9.2656,9.2617,9.1875,9.0234,9.0039,8.8554,8.5273,8.4961,8.4062,8.2344,8.2304,8.2304,8.2304,8.2304,8.2304,8.2304,8.2304,8.2304,6.8167,6.9052,7.0437,7.3399,7.6438,7.9092,8.0516,8.0977,8.1285,8.19,8.2054,8.2285,8.317,8.4016,8.467,8.4863,8.6478,8.7632,8.744,8.7718,8.7875,8.7683,8.7098,8.6594,8.6401,8.5824,8.5291,8.4945,8.4279,8.3888,8.3888,8.3028,8.2951,8.3849,8.3009,8.2932,8.3587,8.2932,8.2586,8.2547,8.1778,8.1362,8.1323,8.117,8.1093,8.1093,8.1131,8.117,8.117,8.1208,8.1208,8.1208,8.117,8.117,8.117,8.1131,8.1093,8.1093,8.1093,8.1093,8.1093,8.1093,8.1093,8.1093,8.1093,8.1516,8.2201,8.3079,8.3926,8.4812,8.5632,8.5978,8.6094,8.6094,8.6094,8.6094,8.6094,8.6094,8.6132,8.617,8.6896,8.7517,8.7756,8.906,9.0787,9.3012,9.421,9.5018,9.5399,9.5052,9.4518,9.3861,9.3242,9.2812,9.2617,9.2617,9.2148,9.1094,9.039,8.9062,8.7031,8.5625,8.4062,8.2344,8.2304,8.2304,8.2304,8.2304,8.2304,8.2304,8.2304,8.2304,6.8436,6.9937,7.1898,7.6092,7.8823,8.0554,8.1016,8.1093,8.1208,8.1631,8.2362,8.3054,8.3516,8.4632,8.5478,8.5478,8.6555,8.7248,8.6863,8.7137,8.7252,8.6834,8.6368,8.594,8.556,8.5137,8.4561,8.3708,8.324,8.3002,8.3002,8.2176,8.2099,8.2964,8.2163,8.1932,8.2394,8.197,8.1739,8.1739,8.1285,8.1093,8.1093,8.1093,8.1093,8.1093,8.1093,8.1093,8.1093,8.1093,8.1093,8.1093,8.1093,8.1093,8.1093,8.1093,8.1093,8.1093,8.1093,8.1093,8.1093,8.1093,8.1093,8.117,8.1554,8.197,8.2471,8.3324,8.4241,8.501,8.544,8.5824,8.6094,8.6094,8.6094,8.6094,8.6094,8.6094,8.6094,8.6094,8.7127,8.8012,8.8025,8.979,9.1864,9.398,9.4711,9.5249,9.5899,9.5401,9.4775,9.4212,9.3576,9.3047,9.2656,9.2617,9.2226,9.1367,9.0469,8.9258,8.7578,8.6211,8.4687,8.2969,8.25,8.2304,8.2304,8.2304,8.2304,8.2304,8.2304,8.2304,6.8205,7.0783,7.3783,7.8592,8.0477,8.1093,8.1093,8.1093,8.1093,8.1093,8.2208,8.3208,8.3362,8.4632,8.5709,8.5863,8.6478,8.6742,8.5978,8.6478,8.6665,8.5786,8.5786,8.5555,8.4753,8.4522,8.3862,8.2394,8.2163,8.2086,8.2086,8.1439,8.14,8.2086,8.1439,8.1093,8.1093,8.1093,8.1093,8.1093,8.1093,8.1093,8.1093,8.1093,8.1093,8.1093,8.1093,8.1093,8.1093,8.1093,8.1093,8.1093,8.1093,8.1093,8.1093,8.1093,8.1093,8.1093,8.1093,8.1093,8.1093,8.1093,8.1093,8.1208,8.1893,8.2317,8.267,8.3413,8.4335,8.5099,8.5099,8.5599,8.6094,8.6094,8.6094,8.6094,8.6094,8.6209,8.6324,8.6324,8.7704,8.9013,8.9329,9.1213,9.321,9.4751,9.5135,9.5481,9.6211,9.5962,9.5445,9.4805,9.4212,9.3594,9.289,9.2695,9.2304,9.1562,9.0586,8.9375,8.8008,8.6836,8.5508,8.4062,8.3047,8.2461,8.2304,8.2304,8.2304,8.2304,8.2304,8.2304,6.5859,7.0283,7.5245,7.89,8.0477,8.1093,8.1093,8.1093,8.1093,8.1093,8.1285,8.1631,8.2362,8.3247,8.417,8.4939,8.517,8.517,8.5055,8.517,8.4907,8.4055,8.4626,8.4741,8.3862,8.3093,8.2547,8.2317,8.1662,8.1246,8.1246,8.117,8.1131,8.1246,8.117,8.1093,8.1093,8.1093,8.1093,8.1093,8.1093,8.1093,8.1093,8.1093,8.1093,8.1093,8.1093,8.1093,8.1093,8.1093,8.1093,8.1093,8.1093,8.1093,8.1093,8.1093,8.1093,8.1093,8.1093,8.1093,8.1093,8.1093,8.1093,8.1131,8.1208,8.2253,8.3451,8.3566,8.4753,8.594,8.594,8.6017,8.6094,8.6094,8.6094,8.6094,8.6094,8.6671,8.7242,8.7242,8.8594,9.0213,9.171,9.2828,9.3868,9.4866,9.5635,9.5903,9.5288,9.5504,9.5398,9.4542,9.4107,9.3867,9.375,9.3047,9.2539,9.2422,9.0898,8.9883,8.9687,8.7422,8.6094,8.5859,8.4258,8.3047,8.2304,8.2304,8.2304,8.2304,8.2304,8.2304,6.759,7.1321,7.4976,7.8823,8.0092,8.0516,8.0977,8.1093,8.1093,8.1093,8.1093,8.1516,8.2785,8.3747,8.4593,8.544,8.5209,8.4901,8.4901,8.4478,8.4055,8.3632,8.3933,8.3856,8.2978,8.2547,8.2124,8.1662,8.1285,8.1093,8.1093,8.1093,8.1093,8.1093,8.1093,8.1093,8.1093,8.1093,8.1093,8.1093,8.1093,8.1093,8.1093,8.1093,8.1093,8.1093,8.1093,8.1093,8.1093,8.1093,8.1093,8.1093,8.1093,8.1093,8.1093,8.1093,8.1093,8.1093,8.1093,8.1093,8.1093,8.1093,8.1093,8.1285,8.2201,8.3009,8.3785,8.4753,8.5522,8.6209,8.6671,8.6478,8.6363,8.7319,8.7166,8.6973,8.7435,8.7473,8.7704,8.8632,8.9787,9.1175,9.2867,9.3866,9.4751,9.5597,9.6057,9.6211,9.5942,9.6095,9.6004,9.5417,9.4793,9.4258,9.3945,9.3086,9.2617,9.2617,9.1406,9.0508,9.0039,8.8476,8.7148,8.6211,8.4961,8.3906,8.3047,8.3047,8.3047,8.3047,8.3047,8.3281,6.8205,7.0898,7.3245,7.7438,7.8977,7.9708,8.0554,8.0939,8.1093,8.1093,8.1093,8.1554,8.2978,8.3978,8.4786,8.5363,8.4978,8.4555,8.4555,8.3824,8.317,8.2978,8.3131,8.2939,8.2093,8.1977,8.1778,8.1131,8.1093,8.1093,8.1093,8.1093,8.1093,8.1093,8.1093,8.1093,8.1093,8.1093,8.1093,8.1093,8.1093,8.1093,8.1093,8.1093,8.1093,8.1093,8.1093,8.1093,8.1093,8.1093,8.1093,8.1093,8.1093,8.1093,8.1093,8.1093,8.1093,8.1093,8.1093,8.1093,8.1131,8.1323,8.14,8.1701,8.3156,8.3772,8.4202,8.544,8.6094,8.6555,8.7242,8.7055,8.7094,8.8392,8.8205,8.794,8.882,8.8512,8.8479,8.9944,9.0941,9.2018,9.3445,9.4406,9.5289,9.6172,9.6288,9.6365,9.648,9.6557,9.6482,9.6263,9.5495,9.486,9.4391,9.3434,9.2812,9.2812,9.1875,9.1015,9.0351,8.9492,8.8359,8.6875,8.6406,8.5469,8.3945,8.3945,8.3945,8.3945,8.3945,8.4297,6.5205,6.7398,6.9667,7.3899,7.6784,7.8784,7.9669,8.0516,8.1093,8.1093,8.1093,8.1362,8.2208,8.3093,8.367,8.3708,8.367,8.367,8.367,8.2901,8.2093,8.1323,8.19,8.2054,8.1246,8.117,8.1131,8.1093,8.1093,8.1093,8.1093,8.1093,8.1093,8.1093,8.1093,8.1093,8.1093,8.1093,8.1093,8.1093,8.1093,8.1093,8.1093,8.1093,8.1093,8.1093,8.1093,8.1093,8.1093,8.1093,8.1093,8.1093,8.1093,8.1093,8.1093,8.1093,8.1093,8.1093,8.1093,8.1093,8.1208,8.2009,8.224,8.2394,8.331,8.4202,8.4868,8.4945,8.6094,8.7358,8.7396,8.7983,8.8598,8.8666,8.8671,8.8833,8.9675,8.979,9.0021,9.0979,9.1825,9.2672,9.3561,9.4406,9.5289,9.6172,9.6288,9.6288,9.6326,9.648,9.6594,9.6586,9.6009,9.5629,9.559,9.4285,9.3437,9.3437,9.2109,9.1289,9.1211,9.039,8.9492,8.8594,8.9336,8.8125,8.4844,8.4844,8.4844,8.4844,8.4844,8.4844,6.4436,6.5897,6.7667,7.136,7.3783,7.5784,7.7746,7.9285,8.0439,8.0977,8.1093,8.1208,8.1477,8.267,8.3593,8.3593,8.3593,8.3401,8.2824,8.2054,8.14,8.1131,8.1362,8.1439,8.1131,8.1093,8.1093,8.1093,8.1093,8.1093,8.1093,8.1093,8.1093,8.1093,8.1093,8.1093,8.1093,8.1093,8.1093,8.1093,8.1093,8.1093,8.1093,8.1093,8.1093,8.1093,8.1093,8.1093,8.1093,8.1093,8.1093,8.1093,8.1093,8.1093,8.1093,8.1093,8.1093,8.117,8.1701,8.1893,8.2009,8.2887,8.3163,8.3292,8.417,8.4637,8.5022,8.5522,8.6517,8.755,8.8098,8.8448,8.8833,8.9363,8.9902,9.0367,9.0636,9.0748,9.1018,9.1864,9.2707,9.3554,9.4405,9.5251,9.5942,9.6249,9.6288,9.6288,9.6288,9.6365,9.6442,9.6596,9.5914,9.5602,9.595,9.4344,9.3445,9.3749,9.2578,9.1719,9.1328,9.1015,9.0429,8.9531,8.9844,8.8594,8.5742,8.6289,8.6289,8.5742,8.5742,8.6015,6.313,6.4283,6.5974,6.9937,7.1591,7.3245,7.7246,7.8391,7.9023,8.0481,8.075,8.075,8.075,8.2073,8.317,8.317,8.317,8.2939,8.2362,8.1593,8.1093,8.1093,8.1093,8.1093,8.1093,8.1093,8.1093,8.1093,8.1093,8.1093,8.1093,8.1093,8.1093,8.1093,8.1093,8.1093,8.1093,8.1093,8.1093,8.1093,8.1093,8.1093,8.1093,8.1093,8.1093,8.1093,8.1093,8.1093,8.1093,8.1093,8.1093,8.1093,8.1093,8.1093,8.1131,8.14,8.1477,8.1624,8.2432,8.274,8.2862,8.374,8.4055,8.4181,8.506,8.5291,8.5406,8.594,8.6935,8.7974,8.8525,8.9102,8.9675,9.0213,9.1018,9.1633,9.1633,9.1633,9.1787,9.2399,9.34,9.4287,9.4905,9.5712,9.6288,9.6288,9.6288,9.6288,9.6288,9.6288,9.6365,9.648,9.598,9.5751,9.6134,9.4559,9.3737,9.3952,9.2946,9.2109,9.1601,9.1679,9.1328,9.0469,9.0703,8.9765,8.7461,8.7773,8.7461,8.664,8.664,8.6893,0.0,0.0,0.0,6.9398,7.009,7.1283,7.7946,7.7739,7.6846,7.9476,8.001,8.001,8.0048,8.1294,8.2285,8.2253,8.2324,8.2324,8.2324,8.1631,8.1131,8.117,8.1131,8.1093,8.1131,8.1093,8.1093,8.1093,8.1093,8.1093,8.1131,8.1131,8.1131,8.1093,8.1093,8.1093,8.1093,8.1093,8.1093,8.1093,8.1093,8.1093,8.1093,8.1093,8.1093,8.1093,8.1093,8.1093,8.1093,8.1093,8.1093,8.1093,8.1093,8.1093,8.1208,8.2009,8.2317,8.2471,8.3349,8.3632,8.3835,8.4676,8.4945,8.5137,8.5901,8.6132,8.6132,8.617,8.7396,8.8738,8.879,9.0021,9.1248,9.1248,9.1899,9.2553,9.2553,9.2553,9.2553,9.2553,9.3903,9.502,9.502,9.5712,9.6288,9.6288,9.6288,9.6288,9.6288,9.6288,9.6288,9.6288,9.6288,9.6288,9.6326,9.5135,9.4328,9.4128,9.3146,9.2499,9.2187,9.2421,9.2187,9.1328,9.2148,9.1719,9.0,8.914,8.832,8.7538,8.7499,8.7351,6.037,0.0,0.0,0.0,0.0,0.0,7.1006,7.1875,7.2998,7.6945,7.7606,7.7913,7.9215,8.104,8.2155,8.1729,8.2518,8.3247,8.3247,8.2516,8.2208,8.2848,8.1855,8.1323,8.1932,8.1439,8.1093,8.1093,8.1093,8.1323,8.1932,8.197,8.1701,8.1131,8.1093,8.1093,8.1093,8.1093,8.1093,8.1093,8.1093,8.1093,8.1093,8.1093,8.1093,8.1093,8.1093,8.1093,8.1093,8.1093,8.1093,8.1093,8.1093,8.1439,8.2009,8.2201,8.2708,8.3368,8.4214,8.4939,8.5445,8.5709,8.6209,8.6748,8.6973,8.705,8.7166,8.7781,8.8738,8.9701,9.0325,9.1325,9.2168,9.2168,9.2746,9.3361,9.3366,9.3866,9.4289,9.4289,9.4674,9.5212,9.5865,9.6134,9.6288,9.6288,9.6288,9.6288,9.6288,9.6288,9.6288,9.6288,9.6288,9.6365,9.648,9.548,9.4679,9.4335,9.3308,9.2516,9.199,9.2042,9.2061,9.1953,9.2187,9.1562,9.0,8.9765,8.922,8.8336,8.7561,8.7103,0.0,0.0,6.2015,6.3921,0.0,0.0,6.9617,6.9778,7.03,7.4891,7.6104,7.669,7.8087,7.9789,8.1194,8.1837,8.2683,8.3316,8.3561,8.317,8.3016,8.3548,8.2432,8.1785,8.2278,8.1554,8.1093,8.1093,8.1093,8.1285,8.1785,8.1785,8.1554,8.1093,8.1093,8.1093,8.1093,8.1093,8.1093,8.1093,8.1093,8.1093,8.1093,8.1093,8.1093,8.1093,8.1093,8.1093,8.1093,8.1093,8.1093,8.1093,8.1093,8.1593,8.2355,8.2708,8.3407,8.4258,8.5099,8.5709,8.6094,8.6103,8.6675,8.7396,8.7396,8.7632,8.8055,8.8556,8.9282,9.0167,9.1437,9.213,9.2592,9.2941,9.3633,9.4249,9.4251,9.4943,9.5405,9.5058,9.5289,9.5674,9.6211,9.6288,9.6288,9.6288,9.6288,9.6288,9.6288,9.6288,9.6288,9.6288,9.6288,9.6365,9.6442,9.5363,9.4453,9.4124,9.3052,9.2248,9.1747,9.1824,9.1972,9.2051,9.2081,9.1311,8.9711,8.9805,8.9176,8.7874,8.7287,8.6877,0.0,0.0,0.0,6.6255,6.5073,0.0,7.0756,6.9566,6.8501,7.2992,7.4658,7.5515,7.6542,7.8004,7.9721,8.1676,8.2487,8.3066,8.3797,8.3824,8.3785,8.3862,8.3016,8.2439,8.2439,8.1708,8.1208,8.1093,8.117,8.1208,8.1106,8.1177,8.117,8.1093,8.1093,8.1093,8.1093,8.1093,8.1093,8.1093,8.1093,8.1093,8.1093,8.1093,8.1093,8.1093,8.1093,8.1093,8.1093,8.1093,8.1093,8.1093,8.1093,8.1662,8.2547,8.3297,8.422,8.5137,8.5978,8.6324,8.6363,8.63,8.6834,8.755,8.755,8.8098,8.8756,8.8948,8.9524,9.0521,9.213,9.263,9.2941,9.3676,9.4483,9.5135,9.5135,9.5751,9.6095,9.5289,9.5751,9.6288,9.6288,9.6288,9.6288,9.6288,9.6288,9.6288,9.6288,9.6288,9.6288,9.6288,9.6288,9.6249,9.6172,9.5016,9.4131,9.3599,9.2672,9.1902,9.1479,9.1672,9.1825,9.1825,9.181,9.0985,8.941,8.9494,8.8566,8.6767,8.6742,8.6632,0.0,0.0,0.0,6.3121,6.4898,0.0,6.5608,6.6358,6.7714,6.9626,7.056,7.1653,7.3941,7.6555,7.8217,7.7946,8.1116,8.4098,8.5411,8.5022,8.4868,8.5555,8.4291,8.333,8.3349,8.2586,8.1823,8.1131,8.1701,8.1778,8.1131,8.1708,8.1778,8.1131,8.1093,8.1093,8.1093,8.1093,8.1093,8.1093,8.1093,8.1093,8.1093,8.1093,8.1093,8.1093,8.1093,8.1093,8.1093,8.1093,8.1093,8.1093,8.1093,8.2009,8.3387,8.3561,8.4527,8.5978,8.6858,8.7589,8.8084,8.7363,8.7743,8.8469,8.8444,8.8563,8.8986,9.0329,9.1325,9.2091,9.2399,9.348,9.4559,9.4712,9.5405,9.6057,9.6057,9.6172,9.6249,9.6095,9.6172,9.6288,9.6288,9.6288,9.6288,9.6288,9.6288,9.6288,9.6288,9.6288,9.6288,9.6288,9.6288,9.6019,9.5288,9.5634,9.498,9.2864,9.3133,9.271,9.1325,9.1325,9.1402,9.1556,9.111,9.0589,9.0102,8.899,8.7764,8.6577,8.6576,8.6401,6.2383,6.343,6.4608,6.4982,6.5432,0.0,0.0,6.5903,6.6395,6.8953,6.911,6.9525,7.2039,7.3945,7.5368,7.6181,7.916,8.2111,8.4133,8.469,8.5176,8.6017,8.4599,8.3632,8.3587,8.2785,8.1977,8.117,8.1477,8.1516,8.1131,8.1477,8.1516,8.1093,8.1093,8.1093,8.1093,8.1093,8.1093,8.1093,8.1093,8.1093,8.1093,8.1093,8.1093,8.1093,8.1093,8.1093,8.1093,8.1093,8.1093,8.1131,8.1516,8.2471,8.3657,8.4099,8.5022,8.6209,8.7089,8.7671,8.7983,8.756,8.7979,8.87,8.8671,8.9252,9.0021,9.0444,9.1479,9.2592,9.3018,9.402,9.5097,9.552,9.598,9.6288,9.6288,9.6288,9.6288,9.6288,9.6288,9.6288,9.6288,9.6288,9.6288,9.6288,9.6288,9.6288,9.6288,9.6288,9.6288,9.6288,9.6288,9.6134,9.5672,9.5634,9.4903,9.321,9.3095,9.2518,9.1248,9.1633,9.1902,9.2018,9.0864,9.0171,9.009,8.8974,8.7935,8.6973,8.7396,8.7286,6.4837,6.5413,6.6601,6.7937,6.6898,6.6023,0.0,0.0,0.0,6.8825,6.8495,6.8348,7.0477,7.1172,7.2197,7.4374,7.6828,7.9208,8.1193,8.3016,8.4516,8.5517,8.4401,8.3516,8.3362,8.2554,8.1785,8.1131,8.1093,8.1093,8.1093,8.1093,8.1093,8.1093,8.1093,8.1093,8.1093,8.1093,8.1093,8.1093,8.1093,8.1093,8.1093,8.1093,8.1093,8.1093,8.1093,8.1093,8.1093,8.1093,8.1093,8.117,8.1816,8.2733,8.3695,8.4368,8.5253,8.6209,8.7089,8.7406,8.7414,8.7414,8.7868,8.8469,8.8628,8.9744,9.0825,9.029,9.1402,9.29,9.3522,9.4445,9.5405,9.6134,9.6288,9.6288,9.6288,9.6288,9.6288,9.6288,9.6288,9.6288,9.6288,9.6288,9.6288,9.6288,9.6288,9.6288,9.6288,9.6288,9.6288,9.6288,9.6288,9.6249,9.6057,9.5557,9.4749,9.3518,9.3169,9.2553,9.1479,9.2251,9.2636,9.2518,9.1095,9.0325,9.0136,8.9483,8.8671,8.7666,8.8397,8.8325,6.8162,6.9926,7.1029,6.8419,7.0184,7.136,6.6733,0.0,6.8935,6.7247,0.0,6.7981,6.9009,0.0,0.0,7.0276,7.4139,7.7097,7.7112,7.9642,8.2131,8.3708,8.3708,8.3285,8.2516,8.1708,8.1208,8.1093,8.1093,8.1093,8.1093,8.1093,8.1093,8.1093,8.1093,8.1093,8.1093,8.1093,8.1093,8.1093,8.1093,8.1093,8.1093,8.1093,8.1093,8.1093,8.1093,8.1093,8.1093,8.1093,8.1093,8.1093,8.1208,8.2201,8.3618,8.3715,8.4753,8.6209,8.7089,8.7406,8.7414,8.7414,8.7483,8.7704,8.8483,8.9325,9.0163,9.0864,9.2284,9.3554,9.3676,9.4943,9.6172,9.6288,9.6288,9.6288,9.6288,9.6288,9.6288,9.6288,9.6288,9.6288,9.6288,9.6288,9.6288,9.6288,9.6288,9.6288,9.6288,9.6288,9.6288,9.6288,9.6288,9.598,9.5211,9.5788,9.5134,9.2787,9.3941,9.4018,9.2441,9.3136,9.3251,9.2515,9.2322,9.1822,9.1056,9.0979,9.0094,8.8521,8.8632,8.8671,6.9486,7.033,7.0991,7.0587,7.0697,7.0403,6.8531,6.8054,6.7981,6.7907,0.0,0.0,0.0,0.0,0.0,0.0,7.2173,7.4388,7.569,7.65,7.8377,8.2369,8.1516,8.0708,8.0823,8.0554,8.0554,8.1054,8.0631,8.0554,8.1054,8.1093,8.1093,8.1093,8.1093,8.1093,8.1093,8.1093,8.1093,8.1093,8.1093,8.1093,8.1093,8.1093,8.1093,8.1093,8.1093,8.1093,8.1093,8.1093,8.1362,8.1816,8.1816,8.2547,8.3734,8.4709,8.5483,8.6209,8.7089,8.7401,8.7406,8.7406,8.7401,8.7473,8.7825,8.8863,9.009,9.0941,9.2399,9.3823,9.4328,9.5366,9.6288,9.6288,9.6288,9.6288,9.6288,9.6288,9.6288,9.6288,9.6288,9.6288,9.6288,9.6288,9.6288,9.6288,9.6288,9.6288,9.6288,9.6288,9.6288,9.6288,9.6288,9.6134,9.5788,9.6095,9.5634,9.4057,9.4134,9.4172,9.3941,9.3787,9.3787,9.3941,9.3441,9.3018,9.2636,9.221,9.1595,9.0902,9.0402,8.9902,7.077,7.1064,7.1541,7.2055,7.0844,6.9559,6.9449,6.8605,6.8091,6.9045,6.8348,0.0,0.0,0.0,6.8851,7.0202,0.0,7.2649,7.4636,7.402,7.5124,7.9992,7.9361,7.8938,8.0054,7.9939,8.0054,8.0708,7.9939,7.9823,8.0708,8.0746,8.0862,8.1093,8.1093,8.1093,8.1093,8.1093,8.1093,8.1093,8.1093,8.1093,8.1093,8.1093,8.1093,8.1093,8.1093,8.1093,8.1131,8.1323,8.1662,8.2009,8.2477,8.3016,8.3779,8.5247,8.5901,8.6209,8.6819,8.7204,8.7396,8.7396,8.755,8.7781,8.8045,8.8902,9.0098,9.0979,9.2402,9.3826,9.4482,9.5443,9.6288,9.6288,9.6288,9.6288,9.6288,9.6288,9.6288,9.6288,9.6288,9.6288,9.6288,9.6288,9.6288,9.6288,9.6288,9.6288,9.6288,9.6288,9.6288,9.6288,9.6288,9.6288,9.6288,9.6288,9.6019,9.5403,9.4518,9.4441,9.5326,9.4749,9.4595,9.4982,9.4366,9.3941,9.3713,9.3097,9.2749,9.2479,9.1595,9.0864,7.2422,7.356,7.4221,7.1908,7.1284,7.0624,6.8274,6.9522,7.0954,7.022,7.1872,7.3193,7.2496,7.1688,7.1174,7.1248,7.1754,0.0,0.0,7.2598,7.3042,7.5848,7.7553,7.9169,8.09,8.0285,7.9823,7.9862,7.9015,7.89,7.9823,7.9862,8.0246,8.1054,8.1093,8.1093,8.1093,8.1093,8.1093,8.1093,8.1093,8.1093,8.1093,8.1093,8.1093,8.1093,8.1093,8.1093,8.117,8.1932,8.1816,8.1285,8.2913,8.3605,8.372,8.4637,8.5406,8.6094,8.6132,8.6671,8.7396,8.7396,8.7968,8.8777,8.958,8.9859,9.0098,9.0979,9.2405,9.3714,9.3753,9.502,9.6288,9.6288,9.6288,9.6288,9.6288,9.6288,9.6288,9.6288,9.6288,9.6288,9.6288,9.6288,9.6288,9.6288,9.6288,9.6288,9.6288,9.6288,9.6288,9.6288,9.6288,9.6288,9.6288,9.6288,9.6288,9.6249,9.5441,9.5326,9.6211,9.6249,9.5865,9.502,9.4982,9.4559,9.3713,9.3674,9.3251,9.2479,9.1595,9.121,7.3964,7.4882,7.5359,7.4037,7.2899,7.1615,6.9706,7.0734,7.1725,7.0367,7.2459,7.4111,7.2753,7.2275,7.2092,7.2092,7.1839,7.1426,0.0,6.9622,6.9549,7.2129,7.474,7.692,7.8446,7.8323,7.8361,7.89,7.763,7.7438,7.8861,7.9477,7.9939,8.0246,8.0785,8.1093,8.1093,8.1093,8.1093,8.1093,8.1093,8.1093,8.1093,8.1093,8.1093,8.1093,8.1093,8.14,8.1893,8.1593,8.2016,8.283,8.3362,8.3933,8.4472,8.4791,8.5406,8.6094,8.6094,8.6671,8.7396,8.7406,8.8021,8.8829,8.9671,8.9902,9.029,9.2322,9.3246,9.3941,9.5097,9.5865,9.6288,9.6288,9.6288,9.6288,9.6288,9.6288,9.6288,9.6288,9.6288,9.6288,9.6288,9.6288,9.6288,9.6288,9.6288,9.6288,9.6288,9.6288,9.6288,9.6288,9.6288,9.6288,9.6288,9.6288,9.6288,9.6288,9.6019,9.598,9.6288,9.6288,9.6172,9.5903,9.5865,9.5749,9.5441,9.4864,9.4134,9.3249,9.2441,9.1748,7.3927,7.4845,7.5469,7.4661,7.3707,7.2569,7.1248,7.2422,7.3487,7.2459,7.4368,7.5909,7.4845,7.4184,7.3707,7.3413,7.2202,7.057,0.0,6.7589,6.7941,7.0079,7.2505,7.49,7.7226,7.6607,7.6363,7.7092,7.5592,7.5361,7.7053,7.8284,7.9169,7.9785,8.0669,8.1093,8.1093,8.1093,8.1093,8.1093,8.1093,8.1093,8.1093,8.1093,8.1093,8.1093,8.1093,8.1554,8.2278,8.2093,8.2638,8.3632,8.3926,8.4388,8.4927,8.5209,8.5637,8.6132,8.644,8.7127,8.7897,8.8179,8.8871,8.9713,9.0213,9.0367,9.0787,9.2707,9.3477,9.4018,9.548,9.6095,9.6288,9.6288,9.6288,9.6288,9.6288,9.6288,9.6288,9.6288,9.6288,9.6288,9.6288,9.6288,9.6288,9.6288,9.6288,9.6288,9.6288,9.6288,9.6288,9.6288,9.6288,9.6288,9.6288,9.6288,9.6288,9.6288,9.6288,9.6288,9.6288,9.6288,9.6442,9.6711,9.6442,9.6442,9.6711,9.5865,9.5018,9.4134,9.3633,9.2749]},{"header":{"parameterUnit":"m.s-1","parameterCategory":1,"la1":30.6,"la2":29.2853,"lo1":-89.7004,"lo2":-87.6739,"dy":0.0162,"dx":0.0183,"nx":112,"ny":82,"refTime":"2023-03-13T12:00:00:Z","depth":0,"parameterNumber":3,"parameterNumberName":"V-component_of_WINDS"},"data":[0.0,0.0,0.0,0.0,0.0,0.0,0.0,0.0,0.0,0.0,0.0,0.0,0.0,0.0,0.0,0.0,0.0,0.0,0.0,0.0,0.0,0.0,0.0,0.0,0.0,0.0,0.0,0.0,0.0,0.0,0.0,0.0,0.0,0.0,0.0,0.0,0.0,0.0,0.0,0.0,0.0,0.0,0.0,0.0,0.0,0.0,0.0,0.0,0.0,0.0,0.0,0.0,0.0,0.0,0.0,0.0,0.0,0.0,0.0,0.0,0.0,0.0,0.0,0.0,0.0,0.0,0.0,0.0,0.0,0.0,0.0,0.0,0.0,0.0,0.0,0.0,0.0,0.0,0.0,0.0,0.0,0.0,0.0,0.0,0.0,0.0,0.0,0.0,0.0,0.0,-1.0995,-1.1714,-1.2983,-1.3844,-1.4021,-1.3702,-1.3017,-1.1904,0.0,0.0,0.0,0.0,0.0,0.0,0.0,0.0,0.0,0.0,0.0,0.0,0.0,0.0,0.0,0.0,0.0,0.0,0.0,0.0,0.0,0.0,0.0,0.0,0.0,0.0,0.0,0.0,0.0,0.0,0.0,0.0,0.0,0.0,0.0,0.0,0.0,0.0,0.0,0.0,0.0,0.0,0.0,0.0,0.0,0.0,0.0,0.0,0.0,0.0,0.0,0.0,0.0,0.0,0.0,0.0,0.0,0.0,0.0,0.0,0.0,0.0,0.0,0.0,0.0,0.0,0.0,0.0,0.0,0.0,0.0,0.0,0.0,0.0,0.0,0.0,0.0,0.0,0.0,0.0,0.0,0.0,0.0,0.0,0.0,0.0,0.0,0.0,0.0,0.0,0.0,0.0,0.0,0.0,0.0,0.0,0.0,0.0,0.0,0.0,0.0,0.0,0.0,0.0,-1.1192,-1.2433,-1.3105,-1.358,-1.3851,-1.3254,-1.2569,-1.1877,0.0,0.0,0.0,0.0,0.0,0.0,0.0,0.0,0.0,0.0,0.0,0.0,0.0,0.0,0.0,0.0,0.0,0.0,0.0,0.0,0.0,0.0,0.0,0.0,0.0,0.0,0.0,0.0,0.0,0.0,0.0,0.0,0.0,0.0,0.0,0.0,0.0,0.0,0.0,0.0,0.0,0.0,0.0,0.0,0.0,0.0,0.0,0.0,0.0,0.0,0.0,0.0,0.0,0.0,0.0,0.0,0.0,0.0,0.0,0.0,0.0,0.0,0.0,0.0,0.0,0.0,0.0,0.0,0.0,0.0,0.0,0.0,0.0,0.0,0.0,0.0,0.0,0.0,0.0,0.0,0.0,0.0,0.0,0.0,0.0,0.0,0.0,0.0,0.0,0.0,0.0,0.0,0.0,0.0,0.0,0.0,0.0,0.0,0.0,0.0,0.0,0.0,0.0,-1.088,-1.1599,-1.2623,-1.3207,-1.3607,-1.3824,-1.3308,-1.2644,-1.1877,-1.1477,0.0,0.0,0.0,0.0,0.0,0.0,0.0,0.0,0.0,0.0,0.0,0.0,0.0,0.0,0.0,0.0,0.0,0.0,0.0,0.0,0.0,0.0,0.0,0.0,0.0,0.0,0.0,0.0,0.0,0.0,0.0,0.0,0.0,0.0,0.0,0.0,0.0,0.0,0.0,0.0,0.0,0.0,0.0,0.0,0.0,0.0,0.0,0.0,0.0,0.0,0.0,0.0,0.0,0.0,0.0,0.0,0.0,0.0,0.0,0.0,0.0,0.0,0.0,0.0,0.0,0.0,0.0,0.0,0.0,0.0,0.0,0.0,0.0,0.0,0.0,0.0,0.0,0.0,0.0,0.0,0.0,0.0,0.0,0.0,0.0,0.0,0.0,0.0,0.0,0.0,0.0,0.0,0.0,0.0,0.0,0.0,0.0,0.0,0.0,0.0,0.0,0.0,-1.1246,-1.1764,-1.2507,-1.3193,-1.3566,-1.3743,-1.3281,-1.2637,-1.1843,-1.1301,0.0,0.0,0.0,0.0,0.0,0.0,0.0,0.0,0.0,0.0,0.0,0.0,0.0,0.0,0.0,0.0,0.0,0.0,0.0,0.0,0.0,0.0,0.0,0.0,0.0,0.0,0.0,0.0,0.0,0.0,0.0,0.0,0.0,0.0,0.0,0.0,0.0,0.0,0.0,0.0,0.0,0.0,0.0,0.0,0.0,0.0,0.0,0.0,0.0,0.0,0.0,0.0,0.0,0.0,0.0,0.0,0.0,0.0,0.0,0.0,0.0,0.0,0.0,0.0,0.0,0.0,0.0,0.0,0.0,0.0,0.0,0.0,0.0,0.0,0.0,0.0,0.0,0.0,0.0,0.0,0.0,0.0,0.0,0.0,0.0,0.0,0.0,0.0,0.0,0.0,0.0,0.0,0.0,0.0,0.0,0.0,0.0,0.0,0.0,0.0,0.0,0.0,-1.1121,-1.1636,-1.2377,-1.2802,-1.3207,-1.3338,-1.2675,-1.2196,-1.1866,-1.1104,0.0,0.0,0.0,0.0,0.0,0.0,0.0,0.0,0.0,0.0,0.0,0.0,0.0,0.0,0.0,0.0,0.0,0.0,0.0,0.0,0.0,0.0,0.0,0.0,0.0,0.0,0.0,0.0,0.0,0.0,0.0,0.0,0.0,0.0,0.0,0.0,0.0,0.0,0.0,0.0,0.0,0.0,0.0,0.0,0.0,0.0,0.0,0.0,0.0,0.0,0.0,0.0,0.0,0.0,0.0,0.0,0.0,0.0,0.0,0.0,0.0,0.0,0.0,0.0,0.0,0.0,0.0,0.0,0.0,0.0,0.0,0.0,0.0,0.0,0.0,0.0,0.0,0.0,0.0,0.0,0.0,0.0,0.0,0.0,0.0,0.0,0.0,0.0,0.0,0.0,0.0,0.0,0.0,0.0,0.0,0.0,0.0,0.0,0.0,0.0,0.0,0.0,-1.1013,-1.1603,-1.2251,-1.034,-0.9081,-0.9226,-0.8875,-0.954,-1.1266,0.0,0.0,0.0,0.0,0.0,0.0,0.0,0.0,0.0,0.0,0.0,0.0,0.0,0.0,0.0,0.0,0.0,0.0,0.0,0.0,0.0,0.0,0.0,0.0,0.0,0.0,0.0,0.0,0.0,0.0,0.0,0.0,0.0,0.0,0.0,0.0,0.0,0.0,0.0,0.0,0.0,0.0,0.0,0.0,0.0,0.0,0.0,0.0,0.0,0.0,0.0,0.0,0.0,0.0,0.0,0.0,0.0,0.0,0.0,0.0,0.0,0.0,0.0,0.0,0.0,0.0,0.0,0.0,0.0,0.0,0.0,0.0,0.0,0.0,0.0,0.0,0.0,0.0,0.0,0.0,0.0,0.0,0.0,0.0,0.0,0.0,0.0,0.0,0.0,0.0,0.0,0.0,0.0,0.0,0.0,0.0,0.0,0.0,0.0,0.0,0.0,0.0,-1.0229,-1.0816,-1.0976,-1.0229,-0.6883,-0.4595,-0.4498,-0.4621,-0.5929,-0.8894,0.0,0.0,0.0,0.0,0.0,0.0,0.0,0.0,0.0,0.0,0.0,0.0,0.0,0.0,0.0,0.0,0.0,0.0,0.0,0.0,0.0,0.0,0.0,0.0,0.0,0.0,0.0,0.0,0.0,0.0,0.0,0.0,0.0,0.0,0.0,0.0,0.0,0.0,0.0,0.0,0.0,0.0,0.0,0.0,0.0,0.0,0.0,0.0,0.0,0.0,0.0,0.0,0.0,0.0,0.0,0.0,0.0,0.0,0.0,0.0,0.0,0.0,0.0,0.0,0.0,0.0,0.0,0.0,0.0,0.0,0.0,0.0,0.0,0.0,0.0,0.0,0.0,0.0,0.0,0.0,0.0,0.0,0.0,0.0,0.0,0.0,0.0,0.0,0.0,0.0,0.0,0.0,0.0,0.0,0.0,0.0,0.0,0.0,0.0,0.0,0.0,0.0,-1.0243,-1.0829,-0.977,-0.6118,-0.2359,0.0,0.0,0.0,-0.1454,0.0,0.0,0.0,0.0,0.0,0.0,0.0,0.0,0.0,0.0,0.0,0.0,0.0,0.0,0.0,0.0,0.0,0.0,0.0,0.0,0.0,0.0,0.0,0.0,0.0,0.0,0.0,0.0,0.0,0.0,0.0,0.0,0.0,0.0,0.0,0.0,0.0,0.0,0.0,0.0,0.0,0.0,0.0,0.0,0.0,0.0,0.0,0.0,0.0,0.0,0.0,0.0,0.0,0.0,0.0,0.0,0.0,0.0,0.0,0.0,0.0,0.0,0.0,0.0,0.0,0.0,0.0,0.0,0.0,0.0,0.0,0.0,0.0,0.0,0.0,0.0,0.0,0.0,0.0,0.0,0.0,0.0,0.0,0.0,0.0,0.0,0.0,0.0,0.0,0.0,0.0,0.0,0.0,0.0,0.0,0.0,0.0,0.0,0.0,0.0,0.0,0.0,0.0,-1.0243,-1.0829,-0.9803,-0.6193,-0.2389,0.0,0.0,0.0,-0.1343,-0.474,0.0,0.0,0.0,0.0,0.0,0.0,0.0,0.0,0.0,0.0,0.0,0.0,0.0,0.0,0.0,0.0,0.0,0.0,0.0,0.0,0.0,0.0,0.0,0.0,0.0,0.0,0.0,0.0,0.0,0.0,0.0,0.0,0.0,0.0,0.0,0.0,0.0,0.0,0.0,0.0,0.0,0.0,0.0,0.0,0.0,0.0,0.0,0.0,0.0,0.0,0.0,0.0,0.0,0.0,0.0,0.0,0.0,0.0,0.0,0.0,0.0,0.0,0.0,0.0,0.0,0.0,0.0,0.0,0.0,0.0,0.0,0.0,0.0,0.0,0.0,0.0,0.0,0.0,0.0,0.0,0.0,0.0,0.0,0.0,0.0,0.0,0.0,0.0,0.0,0.0,0.0,0.0,0.0,0.0,0.0,0.0,0.0,0.0,0.0,0.0,0.0,0.0,-1.0243,-1.0829,-0.9798,-0.6183,-0.2385,0.0,0.0,0.0,-0.1348,-0.454,0.0,0.0,0.0,0.0,0.0,0.0,0.0,0.0,0.0,0.0,0.0,0.0,0.0,0.0,0.0,0.0,0.0,0.0,0.0,0.0,0.0,0.0,0.0,0.0,0.0,0.0,0.0,0.0,0.0,0.0,0.0,0.0,0.0,0.0,0.0,0.0,0.0,0.0,0.0,0.0,0.0,0.0,0.0,0.0,0.0,0.0,0.0,0.0,0.0,0.0,0.0,0.0,0.0,0.0,0.0,0.0,0.0,0.0,0.0,0.0,0.0,0.0,0.0,0.0,0.0,0.0,0.0,0.0,0.0,0.0,0.0,0.0,0.0,0.0,0.0,0.0,0.0,0.0,0.0,0.0,0.0,0.0,0.0,0.0,0.0,0.0,0.0,0.0,0.0,0.0,0.0,0.0,0.0,0.0,0.0,0.0,0.0,0.0,0.0,0.0,0.0,0.0,-1.0283,-1.0849,-0.9928,-0.6758,-0.2522,0.0,0.0,0.0,-0.1188,-0.3932,0.0,0.0,0.0,0.0,0.0,0.0,0.0,0.0,0.0,0.0,0.0,0.0,0.0,0.0,0.0,0.0,0.0,0.0,0.0,0.0,0.0,0.0,0.0,0.0,0.0,0.0,0.0,0.0,0.0,0.0,0.0,0.0,0.0,0.0,0.0,0.0,0.0,0.0,0.0,0.0,0.0,0.0,0.0,0.0,0.0,0.0,0.0,0.0,0.0,0.0,0.0,0.0,0.0,0.0,0.0,0.0,0.0,0.0,0.0,0.0,0.0,0.0,0.0,0.0,0.0,0.0,0.0,0.0,0.0,0.0,0.0,0.0,0.0,0.0,0.0,0.0,0.0,0.0,0.0,0.0,0.0,0.0,0.0,0.0,0.0,0.0,0.0,0.0,0.0,0.0,0.0,0.0,0.0,0.0,0.0,0.0,0.0,0.0,0.0,0.0,0.0,0.0,-1.0058,-1.0702,-1.0915,-1.0448,-0.4179,0.0,0.0,0.0,-0.0301,-0.0855,-0.6038,0.0,0.0,0.0,0.0,0.0,0.0,0.0,0.0,0.0,0.0,0.0,0.0,0.0,0.0,0.0,0.0,0.0,0.0,0.0,0.0,0.0,0.0,0.0,0.0,0.0,0.0,0.0,0.0,0.0,0.0,0.0,0.0,0.0,0.0,0.0,0.0,0.0,0.0,0.0,0.0,0.0,0.0,0.0,0.0,0.0,0.0,0.0,0.0,0.0,0.0,0.0,0.0,0.0,0.0,0.0,0.0,0.0,0.0,0.0,0.0,0.0,0.0,0.0,0.0,0.0,0.0,0.0,0.0,0.0,0.0,0.0,0.0,0.0,0.0,0.0,0.0,0.0,0.0,0.0,0.0,0.0,0.0,0.0,0.0,0.0,0.0,0.0,0.0,0.0,0.0,0.0,0.0,0.0,0.0,0.0,0.0,0.0,0.0,0.0,0.0,0.0,-1.0009,-0.9073,-0.9185,-1.1348,-0.4712,0.0,0.0,0.0,0.0,0.0,-0.4544,0.0,0.0,0.0,0.0,0.0,0.0,0.0,0.0,0.0,0.0,0.0,0.0,0.0,0.0,0.0,0.0,0.0,0.0,0.0,0.0,0.0,0.0,0.0,0.0,0.0,0.0,0.0,0.0,0.0,0.0,0.0,0.0,0.0,0.0,0.0,0.0,0.0,0.0,0.0,0.0,0.0,0.0,0.0,0.0,0.0,0.0,0.0,0.0,0.0,0.0,0.0,0.0,0.0,0.0,0.0,0.0,0.0,0.0,0.0,0.0,0.0,0.0,0.0,0.0,0.0,0.0,0.0,0.0,0.0,0.0,0.0,0.0,0.0,0.0,0.0,0.0,0.0,0.0,0.0,0.0,0.0,0.0,0.0,0.0,0.0,-1.0385,-1.0507,-1.0439,-1.0243,-0.9815,0.0,0.0,0.0,0.0,0.0,0.0,0.0,0.0,0.0,0.0,0.0,-1.0085,-0.786,-0.7117,-0.9283,-0.376,0.0,0.0,0.0,0.0,0.0,-0.3424,-0.6685,0.0,0.0,0.0,0.0,0.0,0.0,0.0,0.0,0.0,0.0,0.0,0.0,0.0,0.0,0.0,0.0,0.0,0.0,0.0,0.0,0.0,0.0,0.0,0.0,0.0,0.0,0.0,0.0,0.0,0.0,0.0,0.0,-0.914,-0.859,0.0,0.0,0.0,0.0,0.0,0.0,0.0,0.0,0.0,0.0,0.0,0.0,0.0,-1.0893,-1.1161,-1.0637,-0.6829,0.0,0.0,0.0,0.0,0.0,0.0,0.0,0.0,0.0,0.0,0.0,0.0,0.0,0.0,0.0,0.0,0.0,0.0,0.0,0.0,0.0,0.0,0.0,0.0,0.0,0.0,0.0,0.0,0.0,0.0,0.0,0.0,0.0,-1.067,-1.0683,-1.0677,-1.0575,-1.0263,-1.012,-0.9992,-0.9802,-0.9605,-0.9449,0.0,0.0,0.0,0.0,0.0,0.0,-1.0254,-1.0155,-0.7755,-0.2097,-0.0657,0.0,0.0,0.0,0.0,0.0,-0.3652,-0.7152,-1.0367,-1.0189,0.0,0.0,0.0,0.0,0.0,0.0,0.0,0.0,0.0,0.0,0.0,0.0,0.0,0.0,0.0,0.0,0.0,0.0,0.0,0.0,0.0,0.0,0.0,0.0,0.0,0.0,0.0,0.0,0.0,-0.2762,-0.4562,-0.4386,-0.4259,-0.3159,0.0,0.0,0.0,0.0,0.0,0.0,0.0,0.0,0.0,-1.0626,-1.0766,-1.1083,-1.1436,-1.08,-0.8957,-0.5923,-0.1899,0.0,0.0,0.0,0.0,0.0,0.0,0.0,0.0,0.0,0.0,0.0,0.0,0.0,0.0,0.0,0.0,0.0,0.0,0.0,0.0,0.0,0.0,0.0,0.0,0.0,0.0,0.0,0.0,-0.362,-0.945,-1.096,-1.1036,-1.0987,-1.107,-1.0989,-1.0962,-1.0751,-1.0317,-1.0032,-0.9924,-0.9842,-0.9659,-0.9517,0.0,0.0,0.0,-1.0078,-1.0016,-0.871,-0.5704,-0.0486,0.0,0.0,0.0,0.0,0.0,0.0,-0.3795,-0.761,-1.1014,-1.0812,-1.0392,0.0,0.0,0.0,0.0,0.0,0.0,0.0,0.0,0.0,0.0,0.0,0.0,0.0,0.0,0.0,0.0,0.0,0.0,0.0,0.0,0.0,0.0,0.0,0.0,0.0,0.0,0.0,0.0,0.0,-0.0683,-0.254,-0.3008,-0.2316,0.0,0.0,0.0,0.0,0.0,0.0,-1.0277,-1.076,-1.1239,-1.1462,-1.1202,-1.1384,-1.1889,-1.1414,-1.1126,-1.1055,-0.3498,0.0,0.0,0.0,0.0,0.0,0.0,0.0,0.0,0.0,0.0,0.0,0.0,0.0,0.0,0.0,0.0,0.0,0.0,0.0,0.0,0.0,0.0,0.0,0.0,0.0,0.0,0.0,0.0,-0.1242,-0.6558,-0.8777,-0.9712,-0.9804,-0.9912,-1.0155,-1.1375,-1.048,-0.9591,-1.0101,-1.0149,-1.0102,-0.9861,-0.9714,0.0,-0.9634,-0.9996,-1.0022,-0.9883,-0.6433,-0.2961,-0.0324,0.0,0.0,0.0,0.0,0.0,0.0,-0.3931,-0.7911,-1.1529,-1.1274,-1.0799,-1.0229,0.0,0.0,0.0,0.0,0.0,0.0,0.0,0.0,0.0,0.0,0.0,0.0,0.0,0.0,0.0,0.0,0.0,0.0,0.0,0.0,0.0,0.0,0.0,0.0,0.0,0.0,0.0,0.0,0.0,-0.931,-1.1116,0.0,0.0,0.0,0.0,-0.0418,-0.7204,-1.1469,-1.1573,-1.2045,-1.2685,-1.3305,-1.2527,-1.2357,-1.284,-1.2656,-1.2489,-1.2356,-0.3968,0.0,0.0,0.0,0.0,0.0,0.0,0.0,0.0,0.0,0.0,0.0,0.0,0.0,0.0,0.0,0.0,0.0,0.0,0.0,0.0,0.0,0.0,0.0,0.0,0.0,0.0,0.0,0.0,-0.0142,-0.042,-0.3158,-0.576,-0.6058,-0.611,-0.7021,-1.0856,-0.8724,-0.6994,-1.0059,-1.0156,-0.9832,-1.0042,0.0,-0.9836,-1.0071,-0.9984,-0.9757,-0.974,-0.4214,-0.0156,-0.0,0.0,0.0,0.0,0.0,0.0,0.0,-0.4031,-0.7989,-1.1841,-1.164,-1.1151,-1.0697,-1.0256,0.0,0.0,0.0,0.0,0.0,0.0,0.0,0.0,0.0,0.0,0.0,0.0,0.0,0.0,0.0,0.0,0.0,0.0,0.0,0.0,0.0,0.0,0.0,0.0,0.0,0.0,0.0,0.0,-1.2026,-1.2004,0.0,-0.824,-0.5317,-0.2528,-0.0149,-0.2577,-0.6685,-1.2529,-1.3366,-1.3521,-1.3336,-1.3505,-1.3661,-1.3804,-0.7668,-0.4393,-0.4404,-0.1417,0.0,0.0,0.0,0.0,0.0,0.0,0.0,0.0,0.0,0.0,0.0,0.0,0.0,0.0,0.0,0.0,0.0,0.0,0.0,0.0,0.0,0.0,0.0,0.0,0.0,0.0,0.0,0.0,0.0,0.0,-0.0887,-0.1952,-0.2102,-0.2107,-0.3765,-1.0237,-1.0512,-0.9045,-0.7589,-0.7119,-0.7017,-0.7008,-0.8785,-1.0104,-0.9889,-0.8093,-0.5944,-0.3822,-0.5842,-0.5569,-0.0487,0.0,0.0,0.0,0.0,0.0,0.0,-0.1458,-0.5215,-1.1868,-1.1769,-1.1294,-1.0731,-1.0378,-1.0005,0.0,0.0,0.0,0.0,0.0,0.0,0.0,0.0,0.0,0.0,0.0,0.0,0.0,0.0,0.0,0.0,0.0,0.0,0.0,0.0,0.0,0.0,0.0,0.0,0.0,0.0,-0.3536,-1.3112,-1.2809,-1.1907,-1.1965,-0.7209,-0.3008,-0.0158,0.0,-0.2637,-0.8614,-0.9314,-1.0758,-1.3548,-1.4027,-1.4311,-1.4217,-0.4797,0.0,0.0,0.0,0.0,0.0,0.0,0.0,0.0,0.0,0.0,0.0,0.0,0.0,0.0,0.0,0.0,0.0,0.0,0.0,0.0,0.0,0.0,0.0,0.0,0.0,0.0,0.0,0.0,0.0,0.0,0.0,0.0,0.0,0.0,0.0,0.0,0.0,-0.138,-0.6494,-0.9714,-1.0061,-0.4633,-0.3575,-0.3577,-0.3541,-0.5406,-0.7593,-0.9704,-0.6222,-0.2472,-0.0302,-0.4539,-0.5635,-0.049,0.0,0.0,0.0,0.0,0.0,0.0,-0.1126,-0.4229,-0.9548,-1.0875,-1.1321,-1.0806,-1.0405,-0.9985,-0.953,0.0,0.0,0.0,0.0,0.0,0.0,0.0,0.0,0.0,0.0,0.0,0.0,0.0,0.0,0.0,0.0,0.0,0.0,0.0,0.0,0.0,0.0,0.0,0.0,0.0,-0.3486,-1.3155,-1.4225,-1.3425,-1.097,-1.1587,-0.8764,-0.0675,0.0,0.0,0.0,0.0,-0.4193,-1.3629,-1.4211,-1.4224,-1.4229,-0.482,0.0,0.0,0.0,0.0,0.0,0.0,0.0,0.0,0.0,0.0,0.0,0.0,0.0,0.0,0.0,0.0,0.0,0.0,0.0,0.0,0.0,0.0,0.0,0.0,0.0,0.0,0.0,0.0,0.0,0.0,0.0,0.0,0.0,0.0,0.0,0.0,0.0,0.0,0.0,-0.5981,-0.9002,-0.139,0.0,0.0,0.0,0.0,-0.2409,-0.9334,-0.4381,0.0,0.0,0.0,0.0,0.0,0.0,0.0,0.0,0.0,0.0,0.0,-0.3473,-0.5651,-0.5581,-0.9296,-1.1246,-1.0941,-1.0358,-0.9842,-0.9401,0.0,0.0,0.0,0.0,0.0,0.0,0.0,0.0,0.0,0.0,0.0,0.0,0.0,0.0,0.0,0.0,0.0,0.0,0.0,0.0,0.0,0.0,0.0,0.0,0.0,-0.3501,-1.3226,-1.4242,-1.3968,-1.3343,-0.7327,-0.2455,-0.0174,0.0,0.0,0.0,0.0,-0.1262,-0.3837,-1.063,-1.4236,-1.4236,-0.485,0.0,0.0,0.0,0.0,0.0,0.0,0.0,0.0,0.0,0.0,0.0,0.0,0.0,0.0,0.0,0.0,0.0,0.0,0.0,0.0,0.0,0.0,0.0,0.0,0.0,0.0,0.0,0.0,0.0,0.0,0.0,0.0,0.0,0.0,0.0,0.0,0.0,0.0,0.0,-0.1601,-0.2529,-0.047,0.0,0.0,0.0,0.0,-0.0734,-0.2659,-0.1202,0.0,0.0,0.0,0.0,0.0,0.0,0.0,0.0,0.0,0.0,0.0,-0.5971,-0.9655,-0.9574,-1.037,-1.0796,-1.0622,-1.0351,-1.01,0.0,0.0,0.0,0.0,0.0,0.0,0.0,0.0,0.0,0.0,0.0,0.0,0.0,0.0,0.0,0.0,0.0,0.0,0.0,0.0,0.0,0.0,0.0,0.0,0.0,0.0,-0.2077,-0.767,-0.8297,-0.8324,-0.8293,-0.3253,0.0,0.0,0.0,0.0,0.0,0.0,0.0,0.0,-0.5462,-0.8324,-0.8387,-0.2699,0.0,0.0,0.0,0.0,0.0,0.0,0.0,0.0,0.0,0.0,0.0,0.0,0.0,0.0,0.0,0.0,0.0,0.0,0.0,0.0,0.0,0.0,0.0,0.0,0.0,0.0,0.0,0.0,0.0,0.0,0.0,0.0,0.0,0.0,0.0,0.0,0.0,0.0,0.0,0.0,0.0,0.0,0.0,0.0,0.0,0.0,0.0,0.0,0.0,0.0,0.0,0.0,0.0,0.0,0.0,0.0,0.0,0.0,0.0,0.0,0.0,-0.95,-1.1116,-1.0783,0.0,0.0,0.0,-1.0297,-1.0148,-0.9978,0.0,0.0,-0.9381,-0.9286,0.0,0.0,0.0,0.0,0.0,0.0,0.0,0.0,0.0,0.0,0.0,0.0,0.0,0.0,0.0,0.0,0.0,0.0,0.0,0.0,0.0,0.0,0.0,0.0,0.0,0.0,0.0,0.0,0.0,0.0,0.0,0.0,0.0,0.0,0.0,0.0,0.0,0.0,0.0,0.0,0.0,0.0,0.0,0.0,0.0,0.0,0.0,0.0,0.0,0.0,0.0,0.0,0.0,0.0,0.0,0.0,0.0,0.0,0.0,0.0,0.0,0.0,0.0,0.0,0.0,0.0,0.0,0.0,0.0,0.0,0.0,0.0,0.0,0.0,0.0,0.0,0.0,0.0,0.0,0.0,0.0,0.0,0.0,0.0,0.0,0.0,0.0,0.0,0.0,0.0,0.0,0.0,0.0,0.0,0.0,0.0,0.0,0.0,-0.2977,-0.6631,-1.0796,-1.09,-1.0738,-1.0555,-1.0527,-1.0446,-1.0304,-1.029,-1.0209,-1.0066,-0.9666,-0.9537,0.0,0.0,0.0,0.0,0.0,0.0,0.0,0.0,0.0,0.0,0.0,0.0,0.0,0.0,0.0,0.0,0.0,0.0,0.0,0.0,0.0,0.0,0.0,0.0,0.0,0.0,0.0,0.0,0.0,0.0,0.0,0.0,0.0,0.0,0.0,0.0,0.0,0.0,0.0,0.0,0.0,0.0,0.0,0.0,0.0,0.0,0.0,0.0,0.0,0.0,0.0,0.0,0.0,0.0,0.0,0.0,0.0,0.0,0.0,0.0,0.0,0.0,0.0,0.0,0.0,0.0,0.0,0.0,0.0,0.0,0.0,0.0,0.0,0.0,0.0,0.0,0.0,0.0,0.0,0.0,0.0,0.0,0.0,0.0,0.0,0.0,0.0,0.0,0.0,0.0,0.0,0.0,0.0,0.0,0.0,0.0,0.0,0.0,-0.0631,-0.3895,-1.0432,-1.1018,-1.1147,-1.09,-1.0751,-1.0602,-1.0453,-1.0337,-1.0263,-1.0236,-1.0148,-0.9992,0.0,0.0,0.0,0.0,0.0,0.0,0.0,0.0,0.0,0.0,0.0,0.0,0.0,0.0,0.0,0.0,0.0,0.0,0.0,0.0,0.0,0.0,0.0,0.0,0.0,0.0,0.0,0.0,0.0,0.0,0.0,0.0,0.0,0.0,0.0,0.0,0.0,0.0,0.0,0.0,0.0,0.0,0.0,0.0,0.0,0.0,0.0,0.0,0.0,0.0,0.0,0.0,0.0,0.0,0.0,0.0,0.0,0.0,0.0,0.0,0.0,0.0,0.0,0.0,0.0,0.0,0.0,0.0,0.0,0.0,0.0,0.0,0.0,0.0,0.0,0.0,0.0,0.0,0.0,0.0,0.0,0.0,0.0,0.0,0.0,0.0,0.0,0.0,0.0,0.0,0.0,0.0,0.0,0.0,0.0,0.0,0.0,0.0,0.0,-0.168,-0.5158,-0.7972,-0.9847,-1.108,-1.1036,-1.0867,-1.0717,-1.0649,-1.0575,-1.05,-1.05,-1.0337,0.0,0.0,0.0,0.0,0.0,0.0,0.0,0.0,0.0,0.0,0.0,0.0,0.0,0.0,0.0,0.0,0.0,0.0,0.0,0.0,0.0,0.0,0.0,0.0,0.0,0.0,0.0,0.0,0.0,0.0,0.0,0.0,0.0,0.0,0.0,0.0,0.0,0.0,0.0,0.0,0.0,0.0,0.0,0.0,0.0,0.0,0.0,0.0,0.0,0.0,0.0,0.0,0.0,0.0,0.0,0.0,0.0,0.0,0.0,0.0,0.0,0.0,0.0,0.0,0.0,0.0,0.0,0.0,0.0,0.0,0.0,0.0,0.0,0.0,0.0,0.0,0.0,0.0,0.0,0.0,0.0,0.0,0.0,0.0,0.0,0.0,0.0,0.0,0.0,0.0,0.0,0.0,0.0,0.0,0.0,0.0,0.0,0.0,0.0,0.0,0.0,-0.3833,-0.7666,-1.1246,-1.1355,-1.1172,-1.0989,-1.0962,-1.0867,-1.0717,-1.0717,-1.0595,0.0,0.0,0.0,0.0,0.0,0.0,0.0,0.0,0.0,0.0,0.0,0.0,0.0,0.0,0.0,0.0,0.0,0.0,0.0,0.0,0.0,0.0,0.0,0.0,0.0,0.0,0.0,0.0,0.0,0.0,0.0,0.0,0.0,0.0,0.0,0.0,0.0,0.0,0.0,0.0,0.0,0.0,0.0,0.0,0.0,0.0,0.0,0.0,0.0,0.0,0.0,0.0,0.0,0.0,0.0,0.0,0.0,0.0,0.0,0.0,0.0,0.0,0.0,0.0,0.0,0.0,0.0,0.0,0.0,0.0,0.0,0.0,0.0,0.0,0.0,0.0,0.0,0.0,0.0,0.0,0.0,0.0,0.0,0.0,0.0,0.0,0.0,0.0,0.0,0.0,0.0,0.0,0.0,0.0,0.0,0.0,0.0,0.0,0.0,0.0,0.0,-0.0466,-0.4273,-1.1436,-1.1549,-1.145,-1.1138,-1.1009,-1.0867,-1.0717,-1.0717,-1.0704,0.0,0.0,0.0,0.0,0.0,0.0,0.0,0.0,0.0,0.0,0.0,0.0,0.0,0.0,0.0,0.0,0.0,0.0,0.0,0.0,0.0,0.0,0.0,0.0,0.0,0.0,0.0,0.0,0.0,0.0,0.0,0.0,0.0,0.0,0.0,0.0,0.0,0.0,0.0,0.0,0.0,0.0,0.0,0.0,0.0,0.0,0.0,0.0,0.0,0.0,0.0,0.0,0.0,0.0,0.0,0.0,0.0,0.0,0.0,0.0,0.0,0.0,0.0,0.0,0.0,0.0,0.0,0.0,0.0,0.0,0.0,0.0,0.0,0.0,0.0,0.0,0.0,0.0,0.0,0.0,0.0,0.0,0.0,0.0,0.0,0.0,0.0,0.0,0.0,0.0,0.0,0.0,0.0,0.0,0.0,0.0,0.0,0.0,0.0,0.0,0.0,0.0,-0.155,-0.485,-0.9361,-1.1529,-1.145,-1.1219,-1.1023,-1.0873,-1.0778,-1.0738,0.0,0.0,0.0,0.0,0.0,0.0,0.0,0.0,0.0,0.0,0.0,0.0,0.0,0.0,0.0,0.0,0.0,0.0,0.0,0.0,0.0,0.0,0.0,0.0,0.0,0.0,0.0,0.0,0.0,0.0,0.0,0.0,0.0,0.0,0.0,0.0,0.0,0.0,0.0,0.0,0.0,0.0,0.0,0.0,0.0,0.0,0.0,0.0,0.0,0.0,0.0,0.0,0.0,0.0,0.0,0.0,0.0,0.0,0.0,0.0,0.0,0.0,0.0,0.0,0.0,0.0,0.0,0.0,0.0,0.0,0.0,0.0,0.0,0.0,0.0,0.0,0.0,0.0,0.0,0.0,0.0,0.0,0.0,0.0,0.0,0.0,0.0,0.0,0.0,0.0,0.0,0.0,0.0,0.0,0.0,0.0,0.0,0.0,0.0,0.0,0.0,0.0,0.0,0.0,-0.5566,-0.9465,-1.1667,-1.1416,-1.0776,-0.9508,-0.9648,-0.9996,0.0,0.0,0.0,0.0,0.0,0.0,0.0,0.0,0.0,0.0,0.0,0.0,0.0,0.0,0.0,0.0,0.0,0.0,0.0,0.0,0.0,0.0,0.0,0.0,0.0,0.0,0.0,0.0,0.0,0.0,0.0,0.0,0.0,0.0,0.0,0.0,0.0,0.0,0.0,0.0,0.0,0.0,0.0,0.0,0.0,0.0,0.0,0.0,0.0,0.0,0.0,0.0,0.0,0.0,0.0,0.0,0.0,0.0,0.0,0.0,0.0,0.0,0.0,0.0,0.0,0.0,0.0,0.0,0.0,0.0,0.0,0.0,0.0,0.0,0.0,0.0,0.0,0.0,0.0,0.0,0.0,0.0,0.0,0.0,0.0,0.0,0.0,0.0,0.0,0.0,0.0,0.0,0.0,0.0,0.0,0.0,0.0,0.0,0.0,0.0,0.0,0.0,0.0,0.0,-0.0304,-0.4024,-1.1556,-1.1552,-0.9513,-0.5577,-0.6731,-0.8476,0.0,0.0,0.0,0.0,0.0,0.0,0.0,0.0,0.0,0.0,0.0,0.0,0.0,0.0,0.0,0.0,0.0,0.0,0.0,0.0,0.0,0.0,0.0,0.0,0.0,0.0,0.0,0.0,0.0,0.0,0.0,0.0,0.0,0.0,0.0,0.0,0.0,0.0,0.0,0.0,0.0,0.0,0.0,0.0,0.0,0.0,0.0,0.0,0.0,0.0,0.0,0.0,0.0,0.0,0.0,0.0,0.0,0.0,0.0,0.0,0.0,0.0,0.0,0.0,0.0,0.0,0.0,0.0,0.0,0.0,0.0,0.0,0.0,0.0,0.0,0.0,0.0,0.0,0.0,0.0,0.0,0.0,0.0,0.0,0.0,0.0,0.0,0.0,0.0,0.0,0.0,0.0,0.0,0.0,0.0,0.0,0.0,0.0,0.0,0.0,0.0,0.0,0.0,0.0,0.0,-0.1353,-0.3875,-0.9013,-1.0889,-0.9389,-0.4608,-0.5388,0.0,0.0,0.0,0.0,0.0,0.0,0.0,0.0,0.0,0.0,0.0,0.0,0.0,0.0,0.0,0.0,0.0,0.0,0.0,0.0,0.0,0.0,0.0,0.0,0.0,0.0,0.0,0.0,0.0,0.0,0.0,0.0,0.0,0.0,0.0,0.0,0.0,0.0,0.0,0.0,0.0,0.0,0.0,0.0,0.0,0.0,0.0,0.0,0.0,0.0,0.0,0.0,0.0,0.0,0.0,0.0,0.0,0.0,0.0,0.0,0.0,0.0,0.0,0.0,0.0,0.0,0.0,0.0,0.0,0.0,0.0,0.0,0.0,0.0,0.0,0.0,0.0,0.0,0.0,0.0,0.0,0.0,0.0,0.0,0.0,0.0,0.0,0.0,0.0,0.0,0.0,0.0,0.0,0.0,0.0,0.0,0.0,0.0,0.0,0.0,0.0,0.0,0.0,0.0,0.0,0.0,-0.0,-0.4976,-0.7504,-0.7356,-0.2268,-0.379,0.0,0.0,0.0,0.0,0.0,0.0,0.0,0.0,0.0,0.0,0.0,0.0,0.0,0.0,0.0,0.0,0.0,0.0,0.0,0.0,0.0,0.0,0.0,0.0,0.0,0.0,0.0,0.0,0.0,0.0,0.0,0.0,0.0,0.0,0.0,0.0,0.0,0.0,0.0,0.0,0.0,0.0,0.0,0.0,0.0,0.0,0.0,0.0,0.0,0.0,0.0,0.0,0.0,0.0,0.0,0.0,0.0,0.0,0.0,0.0,0.0,0.0,0.0,0.0,0.0,0.0,0.0,0.0,0.0,0.0,0.0,0.0,0.0,0.0,0.0,0.0,0.0,0.0,0.0,0.0,0.0,0.0,0.0,0.0,0.0,0.0,0.0,0.0,0.0,0.0,0.0,0.0,0.0,0.0,0.0,0.0,0.0,0.0,0.0,0.0,0.0,0.0,0.0,0.0,0.0,0.0,0.0,0.0,0.0,0.0,0.0,-0.3716,0.0,0.0,0.0,0.0,0.0,0.0,0.0,0.0,0.0,0.0,0.0,0.0,0.0,0.0,0.0,0.0,0.0,0.0,0.0,0.0,0.0,0.0,0.0,0.0,0.0,0.0,0.0,0.0,0.0,0.0,0.0,0.0,0.0,0.0,0.0,0.0,0.0,0.0,0.0,0.0,0.0,0.0,0.0,0.0,0.0,0.0,0.0,0.0,0.0,0.0,0.0,0.0,0.0,0.0,0.0,0.0,0.0,0.0,0.0,0.0,0.0,0.0,0.0,0.0,0.0,0.0,0.0,0.0,0.0,0.0,0.0,0.0,0.0,0.0,0.0,0.0,0.0,0.0,0.0,0.0,0.0,0.0,0.0,0.0,0.0,0.0,0.0,0.0,0.0,0.0,0.0,0.0,0.0,0.0,0.0,0.0,0.0,0.0,0.0,0.0,0.0,0.0,0.0,0.0,0.0,0.0,0.0,0.0,0.0,0.0,0.0,-0.1011,0.0,0.0,0.0,0.0,0.0,0.0,0.0,0.0,0.0,0.0,0.0,0.0,0.0,0.0,0.0,0.0,0.0,0.0,0.0,0.0,0.0,0.0,0.0,0.0,0.0,0.0,0.0,0.0,0.0,0.0,0.0,0.0,0.0,0.0,0.0,0.0,0.0,0.0,0.0,0.0,0.0,0.0,0.0,0.0,0.0,0.0,0.0,0.0,0.0,0.0,0.0,0.0,0.0,0.0,0.0,0.0,0.0,0.0,0.0,0.0,0.0,0.0,0.0,0.0,0.0,0.0,0.0,0.0,0.0,0.0,0.0,0.0,0.0,0.0,0.0,0.0,0.0,0.0,0.0,0.0,0.0,0.0,0.0,0.0,0.0,0.0,0.0,0.0,0.0,0.0,0.0,0.0,0.0,0.0,0.0,0.0,0.0,0.0,0.0,0.0,0.0,0.0,0.0,0.0,0.0,0.0,0.0,0.0,0.0,0.0,0.0,0.0,0.0,0.0,0.0,0.0,0.0,0.0,0.0,0.0,0.0,0.0,0.0,0.0,0.0,0.0,0.0,0.0,0.0,0.0,0.0,0.0,0.0,0.0,0.0,0.0,0.0,0.0,0.0,0.0,0.0,0.0,0.0,0.0,0.0,0.0,0.0,0.0,0.0,0.0,0.0,0.0,0.0,0.0,0.0,0.0,0.0,0.0,0.0,0.0,0.0,0.0,0.0,0.0,0.0,0.0,0.0,0.0,0.0,0.0,0.0,0.0,0.0,0.0,0.0,0.0,0.0,0.0,0.0,0.0,0.0,0.0,0.0,0.0,0.0,0.0,0.0,0.0,0.0,0.0,0.0,0.0,0.0,0.0,0.0,0.0,0.0,0.0,0.0,0.0,0.0,0.0,0.0,0.0,0.0,0.0,0.0,0.0,0.0,0.0,0.0,0.0,0.0,0.0,0.0,0.0,0.0,0.0,0.0,0.0,0.0,0.0,0.0,0.0,0.0,0.0,0.0,0.0,0.0,0.0,0.0,0.0,0.0,0.0,0.0,0.0,0.0,0.0,0.0,0.0,0.0,0.0,0.0,0.0,0.0,0.0,0.0,0.0,0.0,0.0,0.0,0.0,0.0,0.0,0.0,0.0,0.0,0.0,0.0,0.0,0.0,0.0,0.0,0.0,0.0,0.0,0.0,0.0,0.0,0.0,0.0,0.0,0.0,0.0,0.0,0.0,0.0,0.0,0.0,0.0,0.0,0.0,0.0,0.0,0.0,0.0,0.0,0.0,0.0,0.0,0.0,0.0,0.0,0.0,0.0,0.0,0.0,0.0,0.0,0.0,0.0,0.0,0.0,0.0,0.0,0.0,0.0,0.0,0.0,0.0,0.0,0.0,0.0,0.0,0.0,0.0,0.0,0.0,0.0,0.0,0.0,0.0,0.0,0.0,0.0,0.0,0.0,0.0,0.0,0.0,0.0,0.0,0.0,0.0,0.0,0.0,0.0,0.0,0.0,0.0,0.0,0.0,0.0,0.0,0.0,0.0,0.0,0.0,0.0,0.0,0.0,0.0,0.0,0.0,0.0,0.0,0.0,0.0,0.0,0.0,0.0,0.0,0.0,0.0,0.0,0.0,0.0,0.0,0.0,0.0,0.0,0.0,0.0,0.0,0.0,0.0,0.0,0.0,0.0,0.0,0.0,0.0,0.0,0.0,0.0,0.0,0.0,0.0,0.0,0.0,0.0,0.0,0.0,0.0,0.0,0.0,0.0,0.0,0.0,0.0,0.0,0.0,0.0,0.0,0.0,0.0,0.0,0.0,0.0,0.0,0.0,0.0,0.0,0.0,0.0,0.0,0.0,0.0,0.0,0.0,0.0,0.0,0.0,0.0,0.0,0.0,0.0,0.0,0.0,0.0,0.0,0.0,0.0,0.0,0.0,0.0,0.0,0.0,0.0,0.0,0.0,0.0,0.0,0.0,0.0,0.0,0.0,0.0,0.0,0.0,0.0,0.0,0.0,0.0,0.0,0.0,0.0,0.0,0.0,0.0,0.0,0.0,0.0,0.0,0.0,0.0,0.0,0.0,0.0,0.0,0.0,0.0,0.0,0.0,0.0,0.0,0.0,0.0,0.0,0.0,0.0,0.0,0.0,0.0,0.0,0.0,0.0,0.0,0.0,0.0,0.0,0.0,0.0,0.0,0.0,0.0,0.0,0.0,0.0,0.0,0.0,0.0,0.0,0.0,0.0,0.0,0.0,0.0,0.0,0.0,0.0,0.0,0.0,0.0,0.0,0.0,0.0,0.0,0.0,0.0,0.0,0.0,0.0,0.0,0.0,0.0,0.0,0.0,0.0,0.0,0.0,0.0,0.0,0.0,0.0,0.0,0.0,0.0,0.0,0.0,0.0,0.0,0.0,0.0,0.0,0.0,0.0,0.0,0.0,0.0,0.0,0.0,0.0,0.0,0.0,0.0,0.0,0.0,0.0,0.0,0.0,0.0,0.0,0.0,0.0,0.0,0.0,0.0,0.0,0.0,0.0,0.0,0.0,0.0,0.0,0.0,0.0,0.0,0.0,0.0,0.0,0.0,0.0,0.0,0.0,0.0,0.0,0.0,0.0,0.0,0.0,0.0,0.0,0.0,0.0,0.0,0.0,0.0,0.0,0.0,0.0,0.0,0.0,0.0,0.0,0.0,0.0,0.0,0.0,0.0,0.0,0.0,0.0,0.0,0.0,0.0,0.0,0.0,0.0,0.0,0.0,0.0,0.0,0.0,0.0,0.0,0.0,0.0,0.0,0.0,0.0,0.0,0.0,0.0,0.0,0.0,0.0,0.0,0.0,0.0,0.0,0.0,0.0,0.0,0.0,0.0,0.0,0.0,0.0,0.0,0.0,0.0,0.0,0.0,0.0,0.0,0.0,0.0,0.0,0.0,0.0,0.0,0.0,0.0,0.0,0.0,0.0,0.0,0.0,0.0,0.0,0.0,0.0,0.0,0.0,0.0,0.0,0.0,0.0,0.0,0.0,0.0,0.0,0.0,0.0,0.0,0.0,0.0,0.0,0.0,0.0,0.0,0.0,0.0,0.0,0.0,0.0,0.0,0.0,0.0,0.0,0.0,0.0,0.0,0.0,0.0,0.0,0.0,0.0,0.0,0.0,0.0,0.0,0.0,0.0,0.0,0.0,0.0,0.0,0.0,0.0,0.0,0.0,0.0,0.0,0.0,0.0,0.0,0.0,0.0,0.0,0.0,0.0,0.0,0.0,0.0,0.0,0.0,0.0,0.0,0.0,0.0,0.0,0.0,0.0,0.0,0.0,0.0,0.0,0.0,0.0,0.0,0.0,0.0,0.0,0.0,0.0,0.0,0.0,0.0,0.0,0.0,0.0,0.0,0.0,0.0,0.0,0.0,0.0,0.0,0.0,0.0,0.0,0.0,0.0,0.0,0.0,0.0,0.0,0.0,0.0,0.0,0.0,0.0,0.0,0.0,0.0,0.0,0.0,0.0,0.0,0.0,0.0,0.0,0.0,0.0,0.0,0.0,0.0,0.0,0.0,0.0,0.0,0.0,0.0,0.0,0.0,0.0,0.0,0.0,0.0,0.0,0.0,0.0,0.0,0.0,0.0,0.0,0.0,0.0,0.0,0.0,0.0,0.0,0.0,0.0,0.0,0.0,0.0,0.0,0.0,0.0,0.0,0.0,0.0,0.0,0.0,0.0,0.0,0.0,0.0,0.0,0.0,0.0,0.0,0.0,0.0,0.0,0.0,0.0,0.0,0.0,0.0,0.0,0.0,0.0,0.0,0.0,0.0,0.0,0.0,0.0,0.0,0.0,0.0,0.0,0.0,0.0,0.0,0.0,0.0,0.0,0.0,0.0,0.0,0.0,0.0,0.0,0.0,0.0,0.0,0.0,0.0,0.0,0.0,0.0,0.0,0.0,0.0,0.0,0.0,0.0,0.0,0.0,0.0,0.0,0.0,0.0,0.0,0.0,0.0,0.0,0.0,0.0,0.0,0.0,0.0,0.0,0.0,0.0,0.0,0.0,0.0,0.0,0.0,0.0,0.0,0.0,0.0,0.0,0.0,0.0,0.0,0.0,0.0,0.0,0.0,0.0,0.0,0.0,0.0,0.0,0.0,0.0,0.0,0.0,0.0,0.0,0.0,0.0,0.0,0.0,0.0,0.0,0.0,0.0,0.0,0.0,0.0,0.0,0.0,0.0,0.0,0.0,0.0,0.0,0.0,0.0,0.0,0.0,0.0,0.0,0.0,0.0,0.0,0.0,0.0,0.0,0.0,0.0,0.0,0.0,0.0,0.0,0.0,0.0,0.0,0.0,0.0,0.0,0.0,0.0,0.0,0.0,0.0,0.0,0.0,0.0,0.0,0.0,0.0,0.0,0.0,0.0,0.0,0.0,0.0,0.0,0.0,0.0,0.0,0.0,0.0,0.0,0.0,0.0,0.0,0.0,0.0,0.0,0.0,0.0,0.0,0.0,0.0,0.0,0.0,0.0,0.0,0.0,0.0,0.4663,0.6645,0.096,0.0,0.0,0.0,0.0,0.0,0.0,0.0,0.0,0.0,0.0,0.0,0.0,0.0,0.0,0.0,0.0,0.0,0.0,0.0,0.0,0.0,0.0,0.0,0.0,0.0,0.0,0.0,0.0,0.0,0.0,0.0,0.0,0.0,0.0,0.0,0.0,0.0,0.0,0.0,0.0,0.0,0.0,0.0,0.0,0.0,0.0,0.0,0.0,0.0,0.0,0.0,0.0,0.0,0.0,0.0,0.0,0.0,0.0,0.0,0.0,0.0,0.0,0.0,0.0,0.0,0.0,0.0,0.0,0.0,0.0,0.0,0.0,0.0,0.0,0.0,0.0,0.0,0.0,0.0,0.0,0.0,0.0,0.0,0.0,0.0,0.0,0.0,0.0,0.0,0.0,0.0,0.0,0.0,0.0,0.0,0.0,0.0,0.0,0.0,0.0,0.0,0.0,0.0,0.0,0.0,0.0,0.0,0.0,0.0,0.6833,0.9814,0.1433,0.0,0.0,0.0,0.0,0.0,0.0,0.0,0.0,0.0,0.0,0.0,0.0,0.0,0.0,0.0,0.0,0.0,0.0,0.0,0.0,0.0,0.0,0.0,0.0,0.0,0.0,0.0,0.0,0.0,0.0,0.0,0.0,0.0,0.0,0.0,0.0,0.0,0.0,0.0,0.0,0.0,0.0,0.0,0.0,0.0,0.0,0.0,0.0,0.0,0.0,0.0,0.0,0.0,0.0,0.0,0.0,0.0,0.0,0.0,0.0,0.0,0.0,0.0,0.0,0.0,0.0,0.0,0.0,0.0,0.0,0.0,0.0,0.0,0.0,0.0,0.0,0.0,0.0,0.0,0.0,0.0,0.0,0.0,0.0,0.0,0.0,0.0,0.0,0.0,0.0,0.0,0.0,0.0,0.0,0.0,0.0,0.0,0.0,0.0,0.0,0.0,0.0,0.0,0.0,0.0,0.0,0.0,0.0151,0.0754,0.7245,0.9885,0.2182,0.0955,0.0979,0.1004,0.0353,0.0,0.0,0.0,0.0,0.0,0.0,0.0,0.0,0.0,0.0,0.0,0.0,0.0,0.0,0.0,0.0,0.0,0.0,0.0,0.0,0.0,0.0,0.0,0.0,0.0,0.0,0.0,0.0,0.0,0.0,0.0,0.0,0.0,0.0,0.0,0.0,0.0,0.0,0.0,0.0,0.0,0.0,0.0,0.0,0.0,0.0,0.0,0.0,0.0,0.0,0.0,0.0,0.0,0.0,0.0,0.0,0.0,0.0,0.0,0.0,0.0,0.0,0.0,0.0,0.0,0.0,0.0,0.0,0.0,0.0,0.0,0.0,0.0,0.0,0.0,0.0,0.0,0.0,0.0,0.0,0.0,0.0,0.0,0.0,0.0,0.0,0.0,0.0,0.0,0.0,0.0,0.0,0.1816,0.0,0.0,0.0,0.0,0.0,0.0,0.0,0.0,0.0,0.0,0.0,0.8365,1.1125,1.1867,0.9935,0.9602,0.9788,1.0192,0.4389,0.0,0.0,0.0,0.0,0.0,0.0,0.0,0.0,0.0,0.0,0.0,0.0,0.0,0.0,0.0,0.0,0.0,0.0,0.0,0.0,0.0,0.0,0.0,0.0,0.0,0.0,0.0,0.0,0.0,0.0,0.0,0.0,0.0,0.0,0.0,0.0,0.0,0.0,0.0,0.0,0.0,0.0,0.0,0.0,0.0,0.0,0.0,0.0,0.0,0.0,0.0,0.0,0.0,0.0,0.0,0.0,0.0,0.0,0.0,0.0,0.0,0.0,0.0,0.0,0.0,0.0,0.0,0.0,0.0,0.0,0.0,0.0,0.0,0.0,0.0,0.0,0.0,0.0,0.0,0.0,0.0,0.0,0.0,0.0,0.0,0.0,0.0,0.0,0.0,0.0,0.0,0.0,0.6927,0.2919,0.0,0.0,0.0,0.0,0.0,0.0,0.0,0.0,0.0,0.0,1.0956,1.2759,1.2793,1.2542,1.252,1.2758,1.3618,0.9888,0.528,0.0607,0.2252,0.4736,0.7199,0.7556,0.5482,0.0405,0.0,0.0,0.0,0.0,0.0,0.0,0.4708,0.4917,0.0,0.0,0.0,0.0,0.0,0.0,0.0,0.0,0.0,0.0,0.0,0.0,0.0,0.0,0.0,0.0,0.0,0.0,0.0,0.0,0.0,0.0,0.0,0.0,0.0,0.0,0.0,0.0,0.0,0.0,0.0,0.0,0.0,0.0,0.0,0.0,0.0,0.0,0.0,0.0,0.0,0.0,0.0,0.0,0.0,0.0,0.0,0.0,0.0,0.0,0.0,0.0,0.0,0.0,0.0,0.0,0.0,0.0,0.0,0.0,0.0,0.0,0.0,0.0,0.0,0.0,0.0,0.0,0.0,0.0,0.0,0.0,0.0,0.0,0.0,0.0,1.2264,0.6836,0.0786,0.0157,0.0942,0.157,0.0313,0.0462,0.1211,0.0,0.0,0.3323,1.1176,1.3134,1.3269,1.2874,1.2847,1.33,1.4264,1.5033,1.2115,0.3453,0.5676,1.0168,1.5577,1.6381,1.2521,0.3221,0.1006,0.0,0.0,0.0,0.0791,0.2357,1.1173,1.1603,0.2578,0.0786,0.0,0.0,0.0,0.0,0.0,0.0,0.0,0.0,0.0,0.0,0.0,0.0,0.0,0.0,0.0,0.0,0.0,0.0,0.0,0.0,0.0,0.0,0.0,0.0,0.0,0.0,0.0,0.0,0.0,0.0,0.0,0.0,0.0,0.0,0.0,0.0,0.0,0.0,0.0,0.0,0.0,0.0,0.0,0.0,0.0,0.0,0.0,0.0,0.0,0.0,0.0,0.0,0.0,0.0,0.0,0.0,0.0,0.0,0.0,0.0,0.0,0.0,0.0,0.0,0.0,0.0,0.0,0.0,0.0,0.0,0.0,0.0,0.0,0.0,1.1841,0.8599,0.4488,0.0946,0.5341,0.0,0.155,0.277,0.627,0.9877,0.7755,0.6934,1.2305,1.3408,1.3577,1.395,1.4421,1.4889,1.5425,1.5427,1.5093,1.3695,1.0257,1.0065,1.5589,1.6078,1.5415,1.3846,0.5237,0.0,0.0,0.0,0.3965,1.2615,1.4511,1.4848,1.3708,0.4516,0.0,0.0,0.0,0.0,0.0,0.0,0.0,0.0,0.0,0.0,0.0,0.0,0.0,0.0,0.0,0.0,0.0,0.0,0.0,0.0,0.0,0.0,0.0,0.0,0.0,0.0,0.0,0.0,0.0,0.0,0.0,0.0,0.0,0.0,0.0,0.0,0.0,0.0,0.0,0.0,0.0,0.0,0.0,0.0,0.0,0.0,0.0,0.0,0.0,0.0,0.0,0.0,0.0,0.0,0.0,0.0,0.0,0.0,0.0,0.0,0.0,0.0,0.0,0.0,0.0,0.0,0.0,0.0,0.0,0.0,0.0,0.0,0.0,0.0,1.1844,0.9025,0.4997,0.0948,0.0,0.0,0.8243,0.6941,0.7702,1.1727,1.0962,1.0463,1.2979,1.3789,1.4244,1.4787,1.534,1.591,1.606,1.6007,1.609,1.6563,1.4136,1.336,1.5757,1.6185,1.6085,1.6145,1.1463,0.875,0.8716,0.8626,1.0727,1.5061,1.5513,1.5698,1.5642,1.0689,0.5437,0.0,0.5596,0.5373,0.0,0.0,0.0,0.0,0.0,0.0,0.0,0.0,0.0,0.0,0.0,0.0,0.0,0.0,0.0,0.0,0.0,0.0,0.0,0.0,0.0,0.0,0.0,0.3573,0.7717,0.7798,0.3999,0.0,0.0,0.0,0.0,0.0,0.0,0.0,0.0,0.0,0.0,0.0,0.0,0.0,0.0,0.0,0.0,0.0,0.0,0.0,0.0,0.0,0.0,0.0,0.0,0.0,0.0,0.0,0.0,0.0,0.0,0.0,0.0,0.0,0.0,0.0,0.0,0.0,0.0,0.0,0.0,0.0,0.0,0.0,1.1932,0.9216,0.5376,0.0,0.0,1.1388,1.3192,0.0,0.0,0.0,1.2671,1.28,1.3436,1.413,1.4814,1.508,1.5786,1.64,1.6444,1.6504,1.6571,1.7052,1.6639,1.6279,1.626,1.6252,1.6098,1.6091,1.6056,1.6069,1.5973,1.5966,1.5616,1.5154,1.5744,1.5765,1.5214,1.5207,1.1337,0.3657,0.8972,0.7565,0.0,0.0,0.0,0.0,0.0,0.0,0.0,0.0,0.0,0.0,0.0,0.0,0.0,0.0,0.0,0.0,0.0,0.0,0.0,0.0,0.143,0.3396,0.3388,0.8401,1.4242,1.439,0.9109,0.2923,0.0555,0.0,0.0,0.0,0.0,0.0,0.0,0.0,0.0,0.0,0.0,0.0,0.0,0.0,0.0,0.0,0.0,0.0,0.0,0.0,0.0,0.0,0.0,0.0,0.0,0.0,0.0,0.0,0.0,0.0,0.0,0.0,0.0,0.0,0.0,0.0,0.0,0.0,0.0,0.0,0.0,0.0,1.1775,0.9894,0.6791,0.1413,0.0,0.0,1.2169,1.3535,0.0,1.345,0.0,1.339,1.3539,1.4048,1.4604,1.5092,1.5527,1.6151,1.6381,1.6585,1.6693,1.6934,1.672,1.6831,1.6996,1.6529,1.6045,1.611,1.6151,1.5852,1.5237,1.5175,1.5281,1.5208,1.5147,1.5269,1.5214,1.5269,1.4884,1.4044,0.5273,0.0746,0.0,0.0,0.0,0.0,0.0,0.0,0.0,0.0,0.0,0.0,0.0,0.0,0.0,0.0,0.0,0.0,0.0,0.0,0.0,0.0,0.6073,1.3299,1.3268,1.3807,1.4387,1.4356,1.4127,1.2008,0.2417,0.0,0.0,0.0,0.0,0.0,0.0,0.0,0.0,0.0,0.0,0.0,0.0,0.0,0.0,0.0,0.0,0.0,0.0,0.0,0.0,0.0,0.0,0.0,0.0,0.0,0.0,0.0,0.0,0.0,0.0,0.0,0.0,0.0,0.0,0.0,0.0,0.0,0.0,0.0,0.0,0.0,1.167,1.1227,1.0291,0.8301,0.0,0.0,0.0,0.0,1.3865,1.3631,1.3512,1.362,1.3858,1.4394,1.4909,1.5269,1.5703,1.609,1.6354,1.6517,1.6612,1.703,1.6817,1.6776,1.6877,1.6361,1.6045,1.6096,1.6138,1.5778,1.5188,1.5274,1.52,1.516,1.5242,1.5208,1.5269,1.5208,1.5215,1.5073,1.1212,0.9258,0.8885,0.8944,0.5612,0.0,0.0,0.0,0.0,0.0,0.0,0.0,0.0,0.0,0.0,0.0,0.0,0.0897,0.6809,0.8952,0.8943,0.893,1.1277,1.4367,1.4326,1.4319,1.4367,1.4243,1.4531,1.3865,1.0273,0.9441,0.7795,0.1517,0.0,0.0,0.0,0.0,0.0,0.0,0.0,0.0,0.0,0.0,0.0,0.0,0.0,0.0,0.0,0.0,0.0,0.0,0.0,0.0,0.0,0.0,0.0,0.0,0.0,0.0,0.0,0.0,0.0,0.0,0.0,0.0,0.0,0.0,0.0,0.0,0.0,0.0,1.1667,1.1938,1.2264,0.0,0.0,0.0,0.0,1.1694,1.4105,1.3797,1.3763,1.379,1.4089,1.4516,1.4923,1.5221,1.573,1.6117,1.6225,1.6402,1.651,1.6877,1.6701,1.6469,1.6738,1.6266,1.6151,1.6158,1.6,1.5628,1.5425,1.5364,1.5289,1.5187,1.5181,1.5181,1.5181,1.5181,1.5181,1.5181,1.5285,1.4794,1.4238,1.433,1.0753,0.4287,0.125,0.0,0.0,0.0,0.0,0.0,0.0,0.0,0.0358,0.3398,0.4465,0.5528,1.2016,1.438,1.4367,1.434,1.4333,1.4333,1.4306,1.4299,1.4346,1.4229,1.4517,1.4598,1.5176,1.5167,1.3346,0.6444,0.4736,0.4738,0.4738,0.4744,0.38,0.057,0.0,0.0,0.0,0.0,0.0,0.0,0.0,0.0,0.0,0.0,0.0,0.0,0.0,0.0,0.0,0.0,0.0,0.0,0.0,0.0,0.0,0.0,0.0,0.0,0.0,0.0,0.0,0.0,0.0,0.0,0.0,0.0,1.1701,1.1837,1.2182,1.2374,0.0,0.0,1.3626,1.3732,1.3777,1.4156,1.4061,1.3939,1.4245,1.4421,1.4618,1.4923,1.5594,1.6076,1.6083,1.6334,1.6463,1.6529,1.6429,1.6341,1.6096,1.6186,1.6158,1.6064,1.5499,1.5411,1.6004,1.5465,1.5181,1.5181,1.5181,1.5181,1.5181,1.5181,1.5181,1.5174,1.5257,1.4929,1.4355,1.4289,1.4353,1.3807,0.4277,0.0178,0.0179,0.0,0.0,0.0,0.0,0.0,0.1252,1.0763,1.438,1.4353,1.4353,1.4326,1.4299,1.4299,1.4299,1.4299,1.4299,1.4299,1.4326,1.4289,1.4805,1.5153,1.5121,1.5113,1.5248,1.5248,1.5276,1.5113,1.5113,1.5113,1.2205,0.2089,0.0,0.0,0.0,0.0,0.0,0.0,0.0,0.0,0.0,0.0,0.0,0.0,0.0,0.0,0.0,0.0,0.0,0.0,0.0,0.0,0.0,0.0,0.0,0.0,0.0,0.0,0.0,0.0,0.0,0.0,0.0,0.0,1.1674,1.1837,1.2081,1.2306,1.2663,1.3123,1.3576,1.37,0.0,0.0,1.4373,1.434,1.4434,1.4658,1.4862,1.4957,1.5418,1.5805,1.5906,1.6199,1.6241,1.6199,1.6144,1.6251,1.6119,1.5744,1.5488,1.5493,1.5334,1.5281,1.5458,1.5208,1.5181,1.5181,1.5272,1.5272,1.5181,1.5272,1.5224,1.5224,1.5287,1.4826,1.4355,1.4263,1.4326,1.4169,1.1266,1.0021,0.95,0.2856,0.0,0.0,0.0,0.4103,1.0377,1.3274,1.4346,1.4312,1.4312,1.4306,1.4299,1.4299,1.4299,1.4299,1.4299,1.4299,1.4353,1.4236,1.4706,1.5181,1.5245,1.516,1.5201,1.5201,1.5208,1.5221,1.5221,1.5242,1.4298,1.1217,0.4927,0.0,0.0,0.0,0.0,0.0,0.0,0.0,0.0,0.0,0.0,0.0,0.0,0.0,0.0,0.0,0.0,0.0,0.0,0.0,0.0,0.0,0.0,0.0,0.0,0.0,0.0,0.0,0.0,0.0,0.0,0.0,1.1803,1.1972,1.2203,1.2413,1.2759,1.318,1.3688,1.4036,1.4194,1.436,1.4428,1.4441,1.4502,1.4713,1.4903,1.4957,1.5343,1.5649,1.5676,1.598,1.6035,1.5973,1.6091,1.6015,1.5753,1.5355,1.5261,1.5248,1.5127,1.5289,1.5113,1.5231,1.5038,1.4899,1.5142,1.5114,1.5197,1.5114,1.5066,1.4875,1.4819,1.4563,1.4269,1.4229,1.4312,1.4333,1.4346,1.4367,1.384,0.8044,0.5714,0.5711,0.5706,0.9286,1.4346,1.4333,1.4319,1.4299,1.4299,1.4299,1.4299,1.4299,1.4299,1.4299,1.4299,1.4299,1.4346,1.4216,1.4692,1.5174,1.5224,1.514,1.5181,1.5181,1.5181,1.5181,1.5181,1.5208,1.5228,1.5248,1.028,0.6104,0.6134,0.6024,0.6093,0.6313,0.6651,0.6783,0.6853,0.2702,0.0,0.0,0.0,0.0,0.0,0.0,0.0,0.0,0.0,0.0,0.0,0.0,0.0,0.0,0.0,0.0,0.0,0.0,0.0,0.0,0.0,0.0,1.202,1.2176,1.2366,1.2691,1.3017,1.3403,1.3966,1.4197,1.4306,1.4319,1.4319,1.4367,1.4509,1.4658,1.4808,1.4943,1.533,1.5567,1.5432,1.5842,1.5966,1.5635,1.5808,1.5746,1.5207,1.518,1.5255,1.5183,1.5149,1.5142,1.5142,1.5181,1.4977,1.4369,1.4801,1.5104,1.5118,1.5104,1.4908,1.4342,1.4376,1.4309,1.4303,1.436,1.4299,1.4299,1.4333,1.4346,1.4346,1.438,1.4216,1.4216,1.436,1.4346,1.434,1.4312,1.4299,1.4299,1.4299,1.4299,1.4299,1.4299,1.4299,1.4299,1.4299,1.4306,1.4346,1.4309,1.4645,1.5174,1.5142,1.5272,1.5181,1.5181,1.5181,1.5181,1.5181,1.5181,1.5194,1.5235,1.5167,1.5314,1.5288,1.525,1.5414,1.5998,1.668,1.692,1.6856,0.7964,0.1252,0.0207,0.0,0.0,0.0,0.0,0.0,0.0,0.0,0.0,0.0,0.0,0.0,0.0,0.0,0.0,0.0,0.0,0.0,0.0,0.0,0.0,1.202,1.2176,1.242,1.2942,1.3478,1.3946,1.4197,1.4278,1.4333,1.4441,1.4468,1.4509,1.4665,1.4814,1.493,1.4964,1.5248,1.5452,1.5418,1.5862,1.6088,1.6053,1.5554,1.5269,1.5235,1.5133,1.5231,1.5169,1.4671,1.4415,1.4415,1.5014,1.5,1.4408,1.445,1.4437,1.4551,1.4437,1.4376,1.437,1.4236,1.4346,1.434,1.4312,1.4299,1.4299,1.4306,1.4312,1.4312,1.4319,1.4319,1.4319,1.4312,1.4312,1.4312,1.4306,1.4299,1.4299,1.4299,1.4299,1.4299,1.4299,1.4299,1.4299,1.4299,1.4373,1.4309,1.4276,1.4421,1.4573,1.5099,1.516,1.5181,1.5181,1.5181,1.5181,1.5181,1.5181,1.5187,1.5194,1.5127,1.5432,1.5869,1.5904,1.6008,1.5982,1.6612,1.6754,1.6392,1.463,0.9934,0.1024,0.0,0.0,0.0,0.0,0.0,0.0,0.0,0.0,0.0,0.0,0.0,0.0,0.0,0.0,0.0,0.0,0.0,0.0,0.0,0.0,1.2067,1.2332,1.2678,1.3417,1.3899,1.4204,1.4285,1.4299,1.4319,1.4394,1.4523,1.4645,1.4726,1.4923,1.5072,1.5072,1.5262,1.5384,1.5316,1.5561,1.5581,1.5702,1.5423,1.5153,1.5279,1.5204,1.5101,1.476,1.449,1.4262,1.4262,1.4675,1.4661,1.4256,1.4303,1.4263,1.4343,1.4269,1.4229,1.4229,1.4333,1.4299,1.4299,1.4299,1.4299,1.4299,1.4299,1.4299,1.4299,1.4299,1.4299,1.4299,1.4299,1.4299,1.4299,1.4299,1.4299,1.4299,1.4299,1.4299,1.4299,1.4299,1.4299,1.4312,1.438,1.4269,1.4356,1.4692,1.4664,1.4798,1.5065,1.5133,1.5181,1.5181,1.5181,1.5181,1.5181,1.5181,1.5181,1.5181,1.5167,1.5321,1.5918,1.6035,1.6198,1.6571,1.67,1.6795,1.6478,1.6607,1.4376,0.8657,0.3268,0.0,0.0,0.0,0.0,0.0,0.0,0.0,0.0,0.0,0.0,0.0,0.0,0.0,0.0,0.0,0.0,0.0,0.0,0.0,1.2026,1.2481,1.301,1.3858,1.419,1.4299,1.4299,1.4299,1.4299,1.4299,1.4496,1.4672,1.4699,1.4923,1.5113,1.514,1.5248,1.51,1.516,1.5248,1.5087,1.5126,1.5126,1.5086,1.5135,1.5094,1.4787,1.4343,1.4303,1.4289,1.4289,1.436,1.4353,1.4289,1.436,1.4299,1.4299,1.4299,1.4299,1.4299,1.4299,1.4299,1.4299,1.4299,1.4299,1.4299,1.4299,1.4299,1.4299,1.4299,1.4299,1.4299,1.4299,1.4299,1.4299,1.4299,1.4299,1.4299,1.4299,1.4299,1.4299,1.4299,1.4299,1.4319,1.4256,1.433,1.4577,1.5083,1.525,1.5197,1.5197,1.5286,1.5181,1.5181,1.5181,1.5181,1.5181,1.5201,1.5221,1.5221,1.5267,1.5495,1.5952,1.6289,1.6435,1.692,1.6989,1.7051,1.6965,1.5628,1.4904,1.544,0.6175,0.0,0.0,0.0,0.0,0.0,0.0,0.0,0.0,0.0,0.0,0.0,0.0,0.0,0.0,0.0,0.0,0.0,0.0,0.0,1.1613,1.2393,1.3268,1.3912,1.419,1.4299,1.4299,1.4299,1.4299,1.4299,1.4333,1.4394,1.4523,1.4679,1.4841,1.4977,1.5018,1.5018,1.4997,1.5018,1.5162,1.4821,1.4731,1.4752,1.4787,1.4652,1.437,1.433,1.4216,1.4326,1.4326,1.4312,1.4306,1.4326,1.4312,1.4299,1.4299,1.4299,1.4299,1.4299,1.4299,1.4299,1.4299,1.4299,1.4299,1.4299,1.4299,1.4299,1.4299,1.4299,1.4299,1.4299,1.4299,1.4299,1.4299,1.4299,1.4299,1.4299,1.4299,1.4299,1.4299,1.4299,1.4299,1.4306,1.4319,1.4689,1.509,1.5111,1.5135,1.5153,1.5153,1.5167,1.5181,1.5181,1.5181,1.5181,1.5181,1.5282,1.5187,1.5187,1.5622,1.611,1.6171,1.6577,1.6974,1.6941,1.7078,1.691,1.6802,1.2573,0.9396,0.9312,0.3697,0.0,0.0,0.0,0.0,0.0,0.0,0.0,0.0,0.0,0.0,0.0,0.0,0.0,0.0,0.0,0.0,0.0,0.0,0.0,1.1918,1.2576,1.322,1.3899,1.4122,1.4197,1.4278,1.4299,1.4299,1.4299,1.4299,1.4373,1.4597,1.4767,1.4916,1.5065,1.5025,1.497,1.497,1.4896,1.4821,1.4746,1.4611,1.4598,1.4631,1.437,1.4296,1.4216,1.4333,1.4299,1.4299,1.4299,1.4299,1.4299,1.4299,1.4299,1.4299,1.4299,1.4299,1.4299,1.4299,1.4299,1.4299,1.4299,1.4299,1.4299,1.4299,1.4299,1.4299,1.4299,1.4299,1.4299,1.4299,1.4299,1.4299,1.4299,1.4299,1.4299,1.4299,1.4299,1.4299,1.4299,1.4299,1.4333,1.4309,1.445,1.4774,1.5135,1.5272,1.5201,1.5282,1.5248,1.5228,1.52,1.5174,1.514,1.5221,1.5227,1.5267,1.5628,1.5832,1.6282,1.6584,1.6762,1.692,1.7071,1.6937,1.6965,1.6917,1.479,1.0726,0.4166,0.1448,0.0,0.0,0.0,0.0,0.0,0.0,0.0,0.0,0.0,0.0,0.0,0.0,0.0,0.0,0.0,0.0,0.0,0.0,0.0,1.2026,1.2501,1.2915,1.3654,1.3926,1.4055,1.4204,1.4272,1.4299,1.4299,1.4299,1.438,1.4631,1.4808,1.495,1.5052,1.4984,1.4909,1.4909,1.478,1.4665,1.4631,1.4658,1.4624,1.4475,1.4455,1.4236,1.4306,1.4299,1.4299,1.4299,1.4299,1.4299,1.4299,1.4299,1.4299,1.4299,1.4299,1.4299,1.4299,1.4299,1.4299,1.4299,1.4299,1.4299,1.4299,1.4299,1.4299,1.4299,1.4299,1.4299,1.4299,1.4299,1.4299,1.4299,1.4299,1.4299,1.4299,1.4299,1.4299,1.4306,1.434,1.4353,1.4222,1.4289,1.4395,1.4658,1.5065,1.5181,1.5262,1.5187,1.535,1.5357,1.5188,1.5355,1.5506,1.5462,1.5408,1.5601,1.6062,1.6035,1.6225,1.6898,1.7071,1.7016,1.6958,1.6978,1.6992,1.7012,1.7026,1.3774,0.5256,0.3126,0.207,0.206,0.0815,0.0,0.0,0.0,0.0,0.0,0.0,0.0,0.0,0.0,0.0,0.0,0.0,0.0,0.0,0.0,0.0,1.1497,1.1884,1.2284,1.303,1.3539,1.3892,1.4048,1.4197,1.4299,1.4299,1.4299,1.4346,1.4496,1.4652,1.4753,1.476,1.4753,1.4753,1.4753,1.4618,1.4475,1.434,1.4441,1.4468,1.4326,1.4312,1.4306,1.4299,1.4299,1.4299,1.4299,1.4299,1.4299,1.4299,1.4299,1.4299,1.4299,1.4299,1.4299,1.4299,1.4299,1.4299,1.4299,1.4299,1.4299,1.4299,1.4299,1.4299,1.4299,1.4299,1.4299,1.4299,1.4299,1.4299,1.4299,1.4299,1.4299,1.4299,1.4299,1.4299,1.4319,1.4276,1.4316,1.4343,1.4315,1.4658,1.5156,1.5169,1.5181,1.5207,1.5214,1.5712,1.5822,1.5435,1.5635,1.6064,1.6014,1.6035,1.6076,1.6042,1.6191,1.6341,1.6918,1.7071,1.7016,1.6958,1.6978,1.6978,1.6985,1.7012,1.6815,1.6163,1.1363,0.8156,0.8153,0.3087,0.0,0.0,0.0,0.0,0.0,0.0,0.0,0.0,0.0,0.0,0.0,0.0,0.0,0.0,0.0,0.0,1.1362,1.1619,1.1932,1.2583,1.301,1.3363,1.3709,1.398,1.4183,1.4278,1.4299,1.4319,1.4367,1.4577,1.474,1.474,1.474,1.4706,1.4604,1.4468,1.4353,1.4306,1.4346,1.436,1.4306,1.4299,1.4299,1.4299,1.4299,1.4299,1.4299,1.4299,1.4299,1.4299,1.4299,1.4299,1.4299,1.4299,1.4299,1.4299,1.4299,1.4299,1.4299,1.4299,1.4299,1.4299,1.4299,1.4299,1.4299,1.4299,1.4299,1.4299,1.4299,1.4299,1.4299,1.4299,1.4299,1.4312,1.4222,1.4256,1.4276,1.4243,1.4477,1.4874,1.4841,1.5114,1.5183,1.5272,1.5255,1.5241,1.5732,1.5994,1.6064,1.5757,1.5852,1.6138,1.6186,1.6001,1.6049,1.6198,1.6138,1.6286,1.6859,1.701,1.6917,1.6971,1.6978,1.6978,1.6978,1.6992,1.7005,1.7032,1.5191,1.3862,1.3912,1.1793,0.7559,0.0409,0.0,0.0,0.0,0.0,0.0,0.0,0.0,0.0,0.0,0.0,0.0,0.0,0.0,0.0,1.1986,1.1769,1.1633,1.2332,1.2623,1.2915,1.362,1.4529,1.5182,1.5462,1.5513,1.5513,1.5513,1.5026,1.4665,1.4665,1.4665,1.4624,1.4523,1.4387,1.4299,1.4299,1.4299,1.4299,1.4299,1.4299,1.4299,1.4299,1.4299,1.4299,1.4299,1.4299,1.4299,1.4299,1.4299,1.4299,1.4299,1.4299,1.4299,1.4299,1.4299,1.4299,1.4299,1.4299,1.4299,1.4299,1.4299,1.4299,1.4299,1.4299,1.4299,1.4299,1.4299,1.4299,1.4306,1.4353,1.4367,1.4209,1.435,1.4403,1.4611,1.4577,1.4821,1.5222,1.519,1.5231,1.5252,1.5153,1.5133,1.5314,1.6008,1.6112,1.6014,1.611,1.6049,1.6157,1.6157,1.6157,1.6185,1.6085,1.6259,1.6625,1.6948,1.7092,1.6978,1.6978,1.6978,1.6978,1.6978,1.6978,1.6992,1.7012,1.6924,1.7099,1.6951,1.6886,1.3382,0.5952,0.2028,0.0,0.0,0.0,0.0,0.0,0.0,0.0,0.0,0.0,0.0,0.0,0.0,0.1896,0.0,0.0,0.0,1.2237,1.2359,1.2569,1.3919,1.564,1.7212,1.7801,1.7738,1.7738,1.7929,1.5986,1.4509,1.4689,1.4516,1.4516,1.4516,1.4394,1.4306,1.4312,1.4306,1.4299,1.4306,1.4299,1.4299,1.4299,1.4299,1.4299,1.4306,1.4306,1.4306,1.4299,1.4299,1.4299,1.4299,1.4299,1.4299,1.4299,1.4299,1.4299,1.4299,1.4299,1.4299,1.4299,1.4299,1.4299,1.4299,1.4299,1.4299,1.4299,1.4299,1.4299,1.4319,1.4276,1.433,1.4356,1.4322,1.4746,1.516,1.5121,1.5169,1.5204,1.5147,1.5187,1.5187,1.5194,1.5214,1.5248,1.5856,1.6076,1.609,1.609,1.5998,1.6112,1.6112,1.6112,1.6112,1.6112,1.6558,1.6968,1.6968,1.7092,1.6978,1.6978,1.6978,1.6978,1.6978,1.6978,1.6978,1.6978,1.6978,1.6978,1.6985,1.6989,1.6845,1.6174,0.6309,0.0404,0.0201,0.0202,0.0201,0.0,0.0,0.0,0.0,0.0,0.0193,0.0382,0.0382,0.5725,1.3384,0.0,0.0,0.0,0.0,0.0,1.4446,1.5442,1.6518,1.9006,1.8095,1.7451,1.9751,1.7041,1.5227,1.7372,1.604,1.4679,1.4679,1.455,1.4496,1.4236,1.4249,1.434,1.4263,1.436,1.4299,1.4299,1.4299,1.434,1.4263,1.4269,1.4222,1.4306,1.4299,1.4299,1.4299,1.4299,1.4299,1.4299,1.4299,1.4299,1.4299,1.4299,1.4299,1.4299,1.4299,1.4299,1.4299,1.4299,1.4299,1.4299,1.4299,1.436,1.4276,1.4309,1.4584,1.4888,1.5039,1.4977,1.5259,1.5113,1.5201,1.5296,1.514,1.5154,1.5174,1.5281,1.5248,1.5413,1.5927,1.6103,1.6045,1.6045,1.6145,1.6252,1.6673,1.6762,1.6838,1.6838,1.6907,1.7003,1.6904,1.6951,1.6978,1.6978,1.6978,1.6978,1.6978,1.6978,1.6978,1.6978,1.6978,1.6992,1.7012,1.6836,1.4996,1.054,1.125,0.9928,0.6029,0.5831,0.4019,0.0,0.0,0.0,0.0,0.0,0.37,1.1042,1.0945,1.0502,0.0,0.0,1.2195,1.2425,0.0,0.0,1.6232,1.7398,1.8508,2.1121,2.0392,2.0012,2.2023,1.9709,1.7629,1.8518,1.7198,1.5818,1.4922,1.4665,1.4638,1.4544,1.435,1.4421,1.4323,1.438,1.4299,1.4299,1.4299,1.4333,1.4421,1.4421,1.438,1.4299,1.4299,1.4299,1.4299,1.4299,1.4299,1.4299,1.4299,1.4299,1.4299,1.4299,1.4299,1.4299,1.4299,1.4299,1.4299,1.4299,1.4299,1.4299,1.4299,1.4387,1.4336,1.4584,1.4895,1.5236,1.5197,1.5113,1.5181,1.557,1.5478,1.5214,1.5214,1.5452,1.5527,1.5615,1.5542,1.5696,1.5917,1.6038,1.6118,1.6388,1.651,1.6619,1.6831,1.6955,1.7037,1.6975,1.7016,1.7085,1.6965,1.6978,1.6978,1.6978,1.6978,1.6978,1.6978,1.6978,1.6978,1.6978,1.6978,1.6992,1.7005,1.6601,1.5171,1.1974,1.453,1.4611,1.1468,1.1478,0.987,0.6841,0.4423,0.3189,0.3133,0.5296,0.839,1.2154,1.4216,1.3566,0.0,0.0,0.0,1.4992,1.4725,0.0,1.8463,2.0277,2.1763,2.3365,2.354,2.381,2.4317,2.2736,2.0617,1.9044,1.8476,1.7467,1.5153,1.478,1.4774,1.4787,1.4638,1.4536,1.4536,1.4407,1.4319,1.4299,1.4312,1.4319,1.4666,1.4496,1.4312,1.4299,1.4299,1.4299,1.4299,1.4299,1.4299,1.4299,1.4299,1.4299,1.4299,1.4299,1.4299,1.4299,1.4299,1.4299,1.4299,1.4299,1.4299,1.4299,1.4299,1.4216,1.437,1.5063,1.5229,1.5204,1.516,1.5221,1.5228,1.58,1.5702,1.5241,1.5241,1.5732,1.605,1.6084,1.6189,1.6165,1.6038,1.6125,1.6388,1.6939,1.7085,1.6989,1.6989,1.7099,1.6944,1.7016,1.7099,1.6978,1.6978,1.6978,1.6978,1.6978,1.6978,1.6978,1.6978,1.6978,1.6978,1.6978,1.6978,1.6971,1.6958,1.654,1.6386,1.6925,1.6341,1.6205,1.613,1.6164,1.6191,1.6191,1.1273,0.8761,0.8412,1.2976,1.2841,0.8546,1.3157,1.5276,0.0,0.0,0.0,1.6471,1.7238,0.0,1.9746,2.0764,2.2165,2.4315,2.3267,2.2936,2.5821,2.3223,2.0958,2.18,2.0037,1.7684,1.5445,1.5183,1.5156,1.5086,1.5053,1.4881,1.4322,1.4376,1.4428,1.4306,1.4222,1.4236,1.4306,1.4407,1.4236,1.4306,1.4299,1.4299,1.4299,1.4299,1.4299,1.4299,1.4299,1.4299,1.4299,1.4299,1.4299,1.4299,1.4299,1.4299,1.4299,1.4299,1.4299,1.4299,1.4299,1.4276,1.4329,1.4922,1.5285,1.516,1.512,1.5247,1.5136,1.5404,1.5274,1.5202,1.5794,1.6015,1.6091,1.6131,1.6103,1.6031,1.6085,1.6483,1.6886,1.6913,1.7037,1.6937,1.6937,1.6958,1.6971,1.6944,1.6958,1.6978,1.6978,1.6978,1.6978,1.6978,1.6978,1.6978,1.6978,1.6978,1.6978,1.6978,1.6978,1.6931,1.6802,1.6863,1.6748,1.6374,1.6422,1.6347,1.6103,1.6103,1.6117,1.6144,1.5042,1.4348,1.3667,1.4692,1.4687,1.3712,1.4682,1.5235,2.0119,1.9392,1.9138,1.9249,1.9382,0.0,0.0,2.2532,2.3024,2.4927,2.4134,2.377,2.6042,2.3848,2.2146,2.3109,2.0288,1.764,1.6735,1.5696,1.521,1.5167,1.5107,1.4746,1.4551,1.4597,1.4455,1.4312,1.4367,1.4373,1.4306,1.4367,1.4373,1.4299,1.4299,1.4299,1.4299,1.4299,1.4299,1.4299,1.4299,1.4299,1.4299,1.4299,1.4299,1.4299,1.4299,1.4299,1.4299,1.4299,1.4299,1.4306,1.4373,1.4356,1.4375,1.5018,1.5183,1.5201,1.516,1.5459,1.5712,1.5636,1.5513,1.5241,1.5635,1.5938,1.6076,1.6151,1.613,1.6118,1.6402,1.679,1.6982,1.7058,1.6924,1.6978,1.6978,1.6978,1.6978,1.6978,1.6978,1.6978,1.6978,1.6978,1.6978,1.6978,1.6978,1.6978,1.6978,1.6978,1.6978,1.6978,1.6978,1.6951,1.687,1.6863,1.6734,1.6435,1.6415,1.6313,1.609,1.6157,1.6205,1.6225,1.6022,1.59,1.5683,1.5488,1.5308,1.514,1.5214,1.5391,2.1537,2.1412,2.1801,2.2238,2.1898,2.1931,0.0,0.0,0.0,2.505,2.493,2.4877,2.5651,2.4507,2.3284,2.3272,2.0406,1.7923,1.8,1.6137,1.4903,1.5079,1.4882,1.4726,1.4699,1.4557,1.4421,1.4306,1.4299,1.4299,1.4299,1.4299,1.4299,1.4299,1.4299,1.4299,1.4299,1.4299,1.4299,1.4299,1.4299,1.4299,1.4299,1.4299,1.4299,1.4299,1.4299,1.4299,1.4299,1.4299,1.4299,1.4312,1.4242,1.4216,1.4381,1.5066,1.5224,1.5201,1.516,1.5609,1.6004,1.6004,1.5691,1.5202,1.5428,1.5622,1.6015,1.6124,1.6117,1.6172,1.6912,1.7078,1.7037,1.6951,1.6978,1.6978,1.6978,1.6978,1.6978,1.6978,1.6978,1.6978,1.6978,1.6978,1.6978,1.6978,1.6978,1.6978,1.6978,1.6978,1.6978,1.6978,1.6978,1.6971,1.6937,1.6849,1.6707,1.649,1.6219,1.6112,1.613,1.6474,1.6543,1.6313,1.6062,1.5927,1.6096,1.598,1.5635,1.5261,1.5388,1.5574,2.4473,2.5106,2.5502,2.4565,2.5198,2.5621,2.4289,0.0,2.509,2.4476,0.0,2.4743,2.5117,0.0,0.0,2.2496,2.0909,1.9044,1.7095,1.5481,1.4482,1.476,1.476,1.4685,1.455,1.4407,1.4319,1.4299,1.4299,1.4299,1.4299,1.4299,1.4299,1.4299,1.4299,1.4299,1.4299,1.4299,1.4299,1.4299,1.4299,1.4299,1.4299,1.4299,1.4299,1.4299,1.4299,1.4299,1.4299,1.4299,1.4299,1.4299,1.4319,1.4309,1.4368,1.495,1.5135,1.5201,1.516,1.5609,1.6004,1.6004,1.5622,1.5267,1.5801,1.575,1.5493,1.6022,1.6065,1.6286,1.6939,1.6955,1.6958,1.6978,1.6978,1.6978,1.6978,1.6978,1.6978,1.6978,1.6978,1.6978,1.6978,1.6978,1.6978,1.6978,1.6978,1.6978,1.6978,1.6978,1.6978,1.6978,1.6978,1.6924,1.6788,1.689,1.6775,1.6361,1.6564,1.6578,1.63,1.6632,1.6653,1.6105,1.6071,1.5984,1.6056,1.6042,1.5886,1.5808,1.5628,1.5635,2.5291,2.5598,2.5838,2.5692,2.5732,2.5625,2.4943,2.477,2.4743,2.4716,0.0,0.0,0.0,0.0,0.0,0.0,2.1379,1.9238,1.8872,1.6785,1.5235,1.4709,1.4373,1.4231,1.4251,1.4204,1.4204,1.4292,1.4217,1.4204,1.4292,1.4299,1.4299,1.4299,1.4299,1.4299,1.4299,1.4299,1.4299,1.4299,1.4299,1.4299,1.4299,1.4299,1.4299,1.4299,1.4299,1.4299,1.4299,1.4299,1.4346,1.4242,1.4242,1.437,1.4388,1.4936,1.5265,1.5201,1.516,1.5411,1.5609,1.5609,1.5411,1.5227,1.5486,1.5669,1.5683,1.6035,1.6085,1.6333,1.6845,1.703,1.6978,1.6978,1.6978,1.6978,1.6978,1.6978,1.6978,1.6978,1.6978,1.6978,1.6978,1.6978,1.6978,1.6978,1.6978,1.6978,1.6978,1.6978,1.6978,1.6978,1.6978,1.6951,1.689,1.6944,1.6863,1.6585,1.6598,1.6605,1.6564,1.6537,1.6537,1.6564,1.6476,1.6402,1.6543,1.6259,1.6151,1.6029,1.594,1.5852,2.5758,2.5865,2.6039,2.6226,2.5785,2.5317,2.5277,2.497,2.4783,2.513,2.4877,0.0,0.0,0.0,2.3204,2.5378,0.0,2.0147,2.0874,1.8627,1.6311,1.4465,1.3994,1.3919,1.4116,1.4095,1.4116,1.4231,1.4095,1.4075,1.4231,1.4238,1.4258,1.4299,1.4299,1.4299,1.4299,1.4299,1.4299,1.4299,1.4299,1.4299,1.4299,1.4299,1.4299,1.4299,1.4299,1.4299,1.4306,1.434,1.4216,1.4276,1.4543,1.4638,1.4584,1.5031,1.5147,1.5201,1.5113,1.518,1.5214,1.5214,1.5241,1.5281,1.5129,1.5676,1.6089,1.6042,1.6293,1.6544,1.6872,1.7044,1.6978,1.6978,1.6978,1.6978,1.6978,1.6978,1.6978,1.6978,1.6978,1.6978,1.6978,1.6978,1.6978,1.6978,1.6978,1.6978,1.6978,1.6978,1.6978,1.6978,1.6978,1.6978,1.6978,1.6978,1.6931,1.6822,1.6666,1.6653,1.6809,1.6707,1.668,1.6962,1.6852,1.6564,1.6735,1.6625,1.6354,1.6307,1.6151,1.6022,2.636,2.6774,2.7014,2.6172,2.5945,2.5705,2.485,2.5304,2.5825,2.5558,2.6159,2.664,2.6386,2.6092,2.5905,2.5932,2.4009,0.0,0.0,2.0475,1.7367,1.3887,1.3675,1.396,1.4265,1.4156,1.4075,1.4082,1.3933,1.3912,1.4075,1.4082,1.415,1.4292,1.4299,1.4299,1.4299,1.4299,1.4299,1.4299,1.4299,1.4299,1.4299,1.4299,1.4299,1.4299,1.4299,1.4299,1.4312,1.4263,1.4242,1.4333,1.4993,1.5118,1.5139,1.5114,1.5252,1.5181,1.5187,1.5282,1.5214,1.5214,1.5116,1.5255,1.5192,1.5643,1.6089,1.6042,1.6501,1.6946,1.6953,1.6968,1.6978,1.6978,1.6978,1.6978,1.6978,1.6978,1.6978,1.6978,1.6978,1.6978,1.6978,1.6978,1.6978,1.6978,1.6978,1.6978,1.6978,1.6978,1.6978,1.6978,1.6978,1.6978,1.6978,1.6978,1.6978,1.6971,1.6829,1.6809,1.6965,1.6971,1.6904,1.6968,1.6962,1.6886,1.6735,1.6728,1.6653,1.6307,1.6151,1.6083,2.6921,2.7255,2.7428,2.6947,2.6533,2.6066,2.5371,2.5745,2.6106,2.5611,2.6373,2.6974,2.648,2.6306,2.6239,2.6239,2.544,2.4246,0.0,1.98,1.7825,1.6984,1.6057,1.4952,1.4009,1.381,1.3817,1.3912,1.3688,1.3654,1.3905,1.4014,1.4095,1.415,1.4245,1.4299,1.4299,1.4299,1.4299,1.4299,1.4299,1.4299,1.4299,1.4299,1.4299,1.4299,1.4299,1.4353,1.4256,1.4387,1.4462,1.4792,1.4699,1.4611,1.4705,1.5142,1.5252,1.5181,1.5181,1.5282,1.5214,1.5609,1.5719,1.5863,1.5811,1.5852,1.6124,1.6071,1.6232,1.6564,1.6982,1.6904,1.6978,1.6978,1.6978,1.6978,1.6978,1.6978,1.6978,1.6978,1.6978,1.6978,1.6978,1.6978,1.6978,1.6978,1.6978,1.6978,1.6978,1.6978,1.6978,1.6978,1.6978,1.6978,1.6978,1.6978,1.6978,1.6978,1.6931,1.6924,1.6978,1.6978,1.6958,1.691,1.6904,1.6883,1.6829,1.6727,1.6598,1.6442,1.63,1.6178,2.6907,2.7241,2.7468,2.7175,2.6827,2.6413,2.5932,2.636,2.6747,2.6373,2.7068,2.7629,2.7241,2.7001,2.6827,2.672,2.6279,2.5163,0.0,2.1149,2.0125,1.9764,1.8246,1.6605,1.5011,1.4717,1.4325,1.3593,1.3329,1.3288,1.3587,1.3804,1.396,1.4068,1.4224,1.4299,1.4299,1.4299,1.4299,1.4299,1.4299,1.4299,1.4299,1.4299,1.4299,1.4299,1.4299,1.438,1.4323,1.4475,1.4757,1.4746,1.4421,1.4501,1.4593,1.5025,1.5293,1.5187,1.5242,1.5167,1.5301,1.5945,1.607,1.6021,1.611,1.6138,1.6008,1.6138,1.6272,1.6578,1.6836,1.6944,1.6978,1.6978,1.6978,1.6978,1.6978,1.6978,1.6978,1.6978,1.6978,1.6978,1.6978,1.6978,1.6978,1.6978,1.6978,1.6978,1.6978,1.6978,1.6978,1.6978,1.6978,1.6978,1.6978,1.6978,1.6978,1.6978,1.6978,1.6978,1.6978,1.6978,1.7005,1.7053,1.7005,1.7005,1.7053,1.6904,1.6754,1.6598,1.651,1.6354]}]]